[{"header": {"dx": 0.06612293990616946, "dy": 0.0552356325346848, "nx": 98, "ny": 59, "la1": 35.046912555036876, "la2": 31.78801023549047, "lo1": -121.43107172385933, "lo2": -114.95102361305473, "refTime": "2026041617", "parameterCategory": 1, "parameterNumber": 2}, "data": [8.14, 8.37, 8.14, 8.4, 8.18, 7.57, 6.96, 6.71, 6.35, 6.04, 5.69, 5.59, 5.82, 5.6, 5.09, 3.35, 0.0, -1.27, -2.98, -4.11, -6.0, -6.64, -6.2, -5.73, -5.29, -4.82, -4.57, -4.0, -3.16, -2.84, -1.4, 0.0, 0.0, 2.21, 3.35, 4.6, 5.6, 5.21, 5.15, 5.49, 6.07, 7.2, 8.63, 9.48, 12.27, 14.49, 17.73, 18.33, 13.75, 8.56, 7.1, 8.45, 9.39, 9.39, 10.14, 10.45, 11.18, 11.87, 12.3, 12.53, 12.53, 12.09, 11.18, 10.68, 10.89, 11.18, 11.18, 11.61, 12.09, 12.53, 11.66, 11.18, 10.89, 10.68, 10.68, 10.68, 10.89, 9.28, 8.49, 7.15, 5.81, 4.82, 3.9, 3.39, 2.8, 2.4, 2.97, 3.58, 4.92, 6.65, 7.55, 7.55, 7.15, 6.71, 6.45, 5.58, 5.15, 4.74, 8.14, 8.37, 8.37, 8.14, 8.16, 7.8, 6.92, 6.7, 6.34, 5.72, 5.71, 6.01, 6.18, 5.46, 6.23, 5.09, 1.98, 0.0, -1.7, -2.95, -5.36, -6.4, -6.64, -6.58, -5.36, -4.92, -4.38, -4.0, -3.16, -3.16, -2.23, -0.99, 0.0, 1.4, 3.35, 4.6, 5.21, 5.82, 5.82, 6.18, 6.45, 8.37, 10.01, 11.14, 14.08, 15.32, 16.06, 11.9, 6.45, 4.92, 6.26, 7.15, 8.05, 8.01, 8.82, 9.75, 11.18, 11.87, 12.3, 12.58, 12.53, 12.09, 11.18, 11.18, 10.75, 11.18, 11.61, 12.09, 12.58, 13.01, 12.58, 11.84, 11.36, 10.89, 10.89, 11.36, 11.8, 9.28, 8.49, 7.15, 5.81, 4.82, 3.9, 3.39, 2.8, 2.4, 2.97, 3.58, 4.92, 6.65, 7.55, 7.55, 7.15, 6.71, 6.45, 5.58, 5.15, 4.74, 8.14, 8.37, 8.37, 8.14, 8.16, 7.76, 7.16, 6.7, 6.33, 5.72, 5.72, 5.08, 6.45, 6.18, 5.43, 5.2, 4.6, 2.2, 0.0, -3.22, -3.79, -5.36, -6.52, -7.06, -6.58, -4.82, -4.38, -3.9, -2.84, -2.68, -2.95, -2.0, -0.98, 0.0, 2.84, 6.0, 5.58, 6.11, 6.32, 6.64, 8.27, 9.8, 12.09, 13.74, 14.77, 14.47, 11.88, 7.55, 5.29, 5.73, 6.26, 7.1, 7.55, 8.33, 8.48, 10.18, 10.95, 12.3, 12.8, 13.01, 12.53, 12.09, 11.61, 11.18, 10.95, 11.37, 11.87, 12.37, 12.8, 13.29, 13.49, 12.3, 11.51, 11.05, 11.05, 11.15, 11.96, 10.6, 8.05, 7.15, 6.26, 5.26, 4.0, 2.98, 1.9, 1.0, 1.9, 3.6, 5.51, 7.12, 7.85, 6.94, 6.26, 5.81, 5.51, 5.2, 5.21, 4.54, 8.14, 8.14, 8.37, 8.37, 8.14, 7.5, 7.55, 6.94, 6.31, 5.7, 5.72, 5.1, 6.32, 5.77, 5.15, 5.58, 5.15, 4.89, 1.83, -1.08, -2.95, -4.84, -6.4, -6.8, -6.8, -6.64, -4.38, -3.35, -1.98, -0.98, -1.99, -1.72, -1.72, 0.0, 3.47, 5.69, 6.32, 7.59, 6.84, 8.01, 9.7, 12.16, 12.57, 12.89, 12.79, 12.8, 11.59, 10.25, 9.8, 9.24, 8.82, 9.06, 9.49, 9.75, 10.18, 11.11, 11.61, 12.3, 12.8, 12.58, 12.09, 11.79, 11.37, 11.37, 11.09, 11.5, 12.04, 12.65, 12.92, 13.42, 13.91, 13.01, 11.51, 10.26, 10.28, 10.73, 11.18, 10.7, 8.94, 7.15, 5.75, 5.29, 4.0, 2.23, 1.13, 2.21, 2.98, 4.6, 5.82, 7.12, 6.51, 5.73, 4.92, 4.82, 4.4, 4.22, 4.6, 4.6, 7.7, 8.14, 8.37, 8.37, 8.14, 7.73, 7.53, 7.16, 6.29, 5.69, 5.72, 5.72, 6.64, 5.69, 5.49, 5.06, 5.06, 5.49, 2.99, 0.0, -3.22, -4.43, -6.0, -7.06, -5.82, -6.13, -4.84, -3.48, -1.41, 0.0, 0.0, 0.0, -0.84, 0.0, 2.58, 5.1, 5.1, 7.9, 7.24, 8.18, 9.06, 10.66, 11.5, 12.09, 12.74, 12.86, 12.49, 12.52, 12.49, 12.41, 11.96, 11.84, 11.36, 11.18, 11.61, 12.09, 12.09, 12.53, 12.8, 12.58, 12.09, 11.37, 10.55, 10.96, 11.2, 12.04, 12.04, 12.15, 12.79, 13.75, 14.3, 13.64, 11.72, 10.68, 10.25, 9.39, 9.83, 9.39, 8.05, 6.26, 5.09, 4.98, 3.16, 2.0, 0.98, 2.23, 4.6, 6.16, 6.16, 5.51, 4.92, 4.02, 3.39, 2.98, 3.35, 4.0, 4.57, 4.4, 7.7, 7.7, 8.37, 8.37, 8.14, 7.48, 7.5, 7.13, 6.27, 6.07, 5.7, 5.72, 6.24, 6.45, 6.18, 5.06, 5.37, 4.87, 3.72, 1.05, -1.99, -3.91, -5.06, -5.36, -4.43, -4.43, -2.8, -1.52, -1.52, 0.0, 0.96, 1.72, 2.82, 3.45, 3.8, 3.27, 3.77, 5.49, 5.24, 4.4, 5.9, 9.09, 9.9, 12.09, 13.18, 12.74, 12.41, 12.49, 12.52, 12.52, 12.49, 12.41, 11.96, 11.51, 11.84, 12.27, 12.27, 12.27, 13.01, 13.01, 11.66, 10.85, 10.55, 11.2, 11.6, 12.15, 12.15, 11.2, 11.26, 12.47, 13.43, 13.43, 12.86, 11.83, 11.37, 10.14, 8.94, 8.05, 7.6, 6.26, 4.57, 3.93, 2.95, 1.99, 1.7, 2.6, 5.15, 6.7, 6.2, 4.47, 3.35, 1.98, 1.4, 1.4, 2.21, 3.9, 4.82, 4.0, 7.7, 7.7, 7.7, 7.7, 7.7, 7.7, 7.73, 7.1, 6.92, 6.29, 5.69, 5.32, 6.53, 6.39, 7.07, 6.18, 5.77, 5.37, 4.58, 3.47, 0.88, -1.08, -2.95, -3.22, -3.22, -1.84, -1.52, -1.4, -1.49, -1.03, 0.0, 1.84, 4.29, 6.79, 6.06, 4.43, 3.22, 4.0, 2.53, 0.0, 2.83, 6.3, 9.09, 11.03, 12.27, 10.6, 10.7, 11.14, 10.7, 11.62, 11.18, 10.73, 11.15, 11.15, 11.15, 11.52, 11.96, 11.96, 12.42, 12.74, 11.61, 10.43, 10.55, 11.09, 11.2, 11.64, 11.83, 10.63, 10.96, 12.04, 12.7, 12.15, 12.39, 13.11, 12.98, 11.87, 10.45, 8.8, 8.45, 8.05, 4.57, 2.95, 2.76, 1.84, 2.64, 3.2, 5.37, 6.7, 5.81, 4.0, 0.87, 0.87, 1.13, 1.4, 2.97, 4.34, 4.34, 2.84, 7.7, 7.7, 7.7, 7.7, 7.7, 7.7, 7.73, 7.06, 6.9, 6.53, 5.67, 5.29, 6.04, 6.64, 7.21, 6.7, 7.07, 6.79, 5.69, 5.37, 4.84, 3.74, 3.13, 2.24, 2.24, 2.53, 0.0, -1.52, -2.82, -2.82, 0.0, 0.0, 2.69, 6.32, 6.44, 5.21, 4.0, 2.68, -0.0, -3.13, 0.0, 4.56, 7.81, 9.04, 9.29, 8.94, 8.94, 9.83, 9.83, 9.83, 8.94, 9.83, 10.25, 10.7, 10.7, 11.15, 11.59, 12.04, 12.04, 11.96, 11.36, 10.45, 10.68, 10.0, 9.65, 10.66, 11.75, 11.37, 10.68, 11.18, 12.09, 12.09, 12.27, 12.74, 12.74, 12.18, 12.3, 11.18, 10.6, 9.83, 6.55, 3.16, 2.53, 2.29, 3.0, 3.9, 5.09, 6.02, 5.75, 4.6, 1.8, 0.87, 1.13, 2.98, 3.9, 4.38, 3.6, 1.13, 7.7, 7.7, 7.7, 7.7, 7.7, 7.7, 7.48, 7.5, 6.88, 6.5, 5.64, 5.02, 6.16, 5.29, 6.18, 6.64, 6.64, 6.32, 6.01, 5.69, 5.72, 6.07, 4.92, 4.57, 4.4, 4.66, 3.13, 0.0, -1.4, -1.4, 0.0, 0.0, 3.0, 4.84, 5.09, 5.73, 5.36, -0.0, -0.0, -0.0, -0.0, 4.02, 6.07, 7.01, 8.05, 7.6, 9.39, 10.2, 9.24, 9.24, 9.76, 9.24, 10.14, 10.6, 11.05, 11.15, 11.6, 11.62, 11.62, 11.59, 10.7, 9.54, 8.3, 7.41, 8.42, 10.04, 12.04, 11.66, 10.6, 10.7, 11.59, 12.05, 12.52, 12.07, 12.07, 12.07, 11.6, 11.51, 11.96, 11.15, 8.05, 3.16, 1.66, 2.53, 3.07, 3.84, 4.66, 5.81, 5.16, 4.8, 3.16, 2.53, 2.53, 3.6, 4.82, 4.38, 2.98, -0.0, 7.7, 7.7, 7.7, 7.7, 7.7, 7.7, 7.7, 7.73, 7.1, 6.46, 5.83, 5.64, 5.7, 5.32, 5.29, 5.46, 5.46, 5.46, 4.88, 3.8, 4.29, 4.46, 4.02, 4.0, 3.48, 3.48, 2.0, 2.68, 0.0, 0.0, 0.0, 2.68, -0.0, 3.79, 4.84, 6.07, 4.46, 0.88, -0.0, 1.52, 1.08, 2.23, 3.9, 4.92, 6.26, 7.6, 8.05, 8.9, 9.54, 9.75, 9.75, 10.18, 10.45, 11.05, 11.06, 11.6, 12.07, 12.07, 11.62, 10.73, 9.35, 6.82, 6.01, 6.64, 8.03, 10.0, 11.87, 11.71, 10.7, 11.18, 11.59, 11.99, 12.33, 11.89, 11.53, 10.98, 11.06, 10.25, 10.28, 10.73, 8.91, 3.95, 0.0, 0.85, 2.54, 3.13, 4.02, 4.24, 4.4, 4.8, 4.22, 4.15, 3.9, 4.02, 4.92, 4.47, 2.53, -0.0, 7.7, 7.7, 7.7, 7.7, 7.7, 7.7, 7.7, 7.48, 7.06, 6.88, 6.5, 6.53, 6.7, 6.7, 6.98, 5.64, 5.06, 3.84, 3.45, 2.82, 2.8, 1.4, -0.0, -0.0, -0.0, -0.0, -0.0, -0.0, 2.2, 3.16, -0.0, -0.0, -0.0, 2.4, 2.95, 4.11, 2.8, 1.4, 1.84, 2.76, 2.95, 2.23, 2.53, 4.0, 5.36, 5.81, 6.71, 7.6, 8.45, 8.56, 9.24, 10.25, 10.68, 10.89, 11.06, 11.6, 12.07, 11.59, 10.6, 8.05, 5.49, 4.0, 4.71, 5.9, 7.59, 9.04, 10.55, 11.18, 10.73, 10.89, 11.37, 10.94, 11.21, 10.79, 10.6, 10.32, 9.4, 9.06, 8.77, 8.9, 8.49, 5.81, 1.0, -1.0, 0.89, 1.79, 2.54, 3.2, 3.6, 3.74, 4.15, 4.38, 4.02, 4.02, 4.92, 4.47, 2.53, -0.0, 7.7, 7.7, 7.7, 7.7, 7.7, 7.7, 7.7, 7.48, 7.06, 7.1, 6.46, 6.5, 6.94, 7.95, 7.86, 6.92, 5.37, 4.78, 4.45, 3.22, 2.23, 0.89, -0.0, -0.0, -1.41, -1.41, -0.0, -0.0, -0.0, 1.7, 1.84, 0.96, 1.19, 1.8, 2.0, 2.0, 1.83, 1.99, 1.83, 2.95, 2.0, 1.98, 1.4, 2.53, 4.02, 4.02, 5.81, 6.71, 7.15, 8.05, 8.0, 9.06, 9.97, 9.75, 9.97, 10.6, 10.6, 9.83, 6.45, 2.23, 0.85, 3.29, 4.01, 4.13, 5.0, 7.36, 9.62, 10.04, 9.7, 8.8, 7.85, 7.95, 7.95, 8.05, 8.0, 7.89, 7.63, 6.94, 6.55, 6.66, 7.15, 6.71, 4.82, -1.2, 0.0, 0.89, 1.34, 2.24, 2.54, 2.97, 3.04, 3.58, 3.58, 4.02, 4.82, 4.02, 1.98, -0.0, 7.7, 7.7, 7.7, 7.7, 7.7, 7.7, 7.7, 7.7, 7.73, 6.85, 6.88, 6.9, 7.32, 7.96, 9.13, 9.02, 8.55, 6.79, 5.65, 5.01, 3.73, 2.0, 0.45, -0.63, -0.6, -0.6, -0.4, -0.0, -0.0, 0.6, 2.23, 2.2, 2.0, 2.23, 1.27, 1.27, 1.98, 2.23, 1.8, 2.0, 0.98, -0.0, -0.0, -0.0, -0.0, 3.58, 4.47, 5.36, 6.26, 7.15, 6.26, 7.15, 7.56, 7.21, 8.06, 8.06, 8.0, 8.38, 2.8, -2.64, -0.8, 1.58, 2.51, 1.63, 2.51, 4.3, 6.62, 7.82, 6.64, 6.21, 4.47, 2.53, 1.99, 3.79, 4.6, 4.15, 3.58, 3.13, 3.13, 4.02, 4.02, 5.36, 5.77, 4.98, 0.0, 0.0, 0.0, 0.89, 1.34, 1.79, 1.79, 2.24, 2.68, 3.39, 3.9, 3.13, 0.99, -0.0, 7.7, 7.7, 7.7, 7.7, 7.7, 7.7, 7.7, 7.7, 7.48, 7.5, 7.1, 7.55, 7.57, 8.23, 9.19, 9.72, 9.86, 8.93, 7.35, 6.51, 5.86, 4.55, 2.4, 0.45, -0.32, -0.6, -0.6, -0.0, -0.0, 0.63, 1.26, 2.23, 1.55, 2.23, 1.98, 2.53, 2.21, 2.53, 1.13, -0.0, -0.0, -0.0, -0.0, -0.0, -0.0, 2.53, 2.97, 4.92, 5.81, 6.26, 6.26, 6.71, 6.07, 4.84, 4.11, 3.16, 5.6, 8.05, 5.81, -1.65, -2.41, -0.0, -0.0, -0.0, 0.82, 1.6, 3.15, 4.6, 5.72, 5.89, 4.43, 1.34, -2.53, -1.2, 0.0, -1.34, -1.58, -0.0, -0.0, 1.79, 2.0, 3.6, 4.66, 4.85, 2.98, 1.58, 0.0, -1.58, 1.34, 0.89, 0.89, 0.89, 0.95, 2.0, 1.79, 1.58, -0.0, -0.0, 7.7, 7.7, 7.7, 7.7, 7.7, 7.7, 7.7, 7.7, 7.48, 7.73, 7.5, 7.53, 7.55, 8.22, 9.21, 10.09, 10.59, 9.86, 8.65, 7.72, 7.23, 6.56, 5.08, 2.68, 0.45, -0.0, -0.0, -0.0, -0.0, 0.32, 0.89, 1.2, 3.16, 2.0, 1.8, 3.6, 3.6, 2.8, -0.0, -0.0, -0.98, -1.55, -2.0, -2.0, -1.41, -0.0, -0.0, 1.8, 3.16, 3.79, 4.46, 3.79, 1.7, -0.0, -0.0, 1.7, 5.09, 6.71, 6.94, 1.26, -1.67, -1.4, -1.4, -0.0, -0.0, -0.0, 1.4, 4.56, 5.69, 6.98, 5.82, 2.8, -2.97, -4.47, -3.58, -2.4, -1.2, -0.0, -0.0, 0.89, 0.0, 1.2, 2.4, 2.68, 3.13, 2.97, 0.0, -1.58, -0.95, 1.34, 1.34, -0.95, 0.0, 0.0, 0.89, -0.0, -1.2, -1.2, 7.7, 7.7, 7.7, 7.7, 7.7, 7.7, 7.7, 7.7, 7.7, 7.48, 7.73, 7.76, 8.2, 8.22, 9.21, 9.8, 10.36, 10.23, 9.3, 8.29, 8.0, 7.35, 6.95, 5.08, 2.91, 1.7, 1.24, 1.58, 1.26, 0.63, 0.89, 1.2, 1.2, 1.8, 2.0, 1.98, 3.39, 1.9, -0.0, -1.41, -2.0, -2.23, -3.16, -3.48, -3.48, -1.55, -1.55, -1.55, -0.0, -0.0, -0.0, -0.0, -0.0, -0.0, -0.0, 2.2, 4.46, 5.6, 4.56, 1.49, -0.88, -2.6, -1.52, -1.41, -0.0, -0.0, 2.0, 4.43, 6.08, 6.9, 6.02, 2.24, -3.39, -4.38, -3.13, -1.2, 1.13, 1.98, 2.0, 0.89, -1.26, -2.4, -2.24, -1.34, 0.89, 1.79, 2.68, 0.0, 0.0, 1.34, -2.24, -2.0, -1.26, 0.89, 0.89, -1.26, -1.2, -1.2, 7.7, 7.7, 7.7, 7.7, 7.7, 7.7, 7.7, 7.7, 7.7, 7.7, 8.16, 7.92, 8.2, 8.49, 9.21, 10.12, 10.69, 10.3, 9.66, 8.94, 8.65, 8.0, 7.61, 6.28, 5.09, 4.02, 3.54, 3.09, 2.17, 0.89, 0.45, 0.63, -0.0, -0.0, -0.0, -0.0, -0.0, -0.0, -2.0, -2.73, -1.55, -2.23, -3.48, -2.84, -3.48, -3.48, -2.73, -2.73, -1.55, -1.55, -1.7, -1.55, -0.0, -0.0, -0.0, 2.0, 3.48, 2.98, 1.55, -0.0, -0.0, -2.0, -2.2, -1.55, -0.0, -0.0, 1.7, 3.79, 5.64, 7.6, 4.92, -2.24, -4.82, -4.02, -1.9, 1.08, 3.72, 5.06, 4.54, 4.0, 1.2, -1.58, -3.9, -3.47, -2.68, 1.34, 2.68, 1.58, 0.0, -2.24, -2.97, -2.54, -1.58, -1.26, -1.79, -1.79, -1.9, -1.9, 7.7, 7.7, 7.7, 7.7, 7.7, 7.7, 7.7, 7.7, 8.14, 8.14, 8.4, 8.16, 8.18, 8.58, 9.21, 9.8, 10.4, 10.36, 9.72, 9.37, 9.21, 8.55, 7.9, 7.2, 6.3, 5.7, 4.89, 3.58, 1.79, 0.45, -0.63, -0.6, -0.57, -0.61, -0.98, -1.84, -2.6, -3.47, -3.22, -3.22, -3.22, -3.22, -2.98, -3.79, -3.48, -3.16, -3.16, -3.16, -3.48, -2.2, -1.55, -0.0, -0.0, -0.0, -0.0, -0.0, 2.0, 1.8, -0.0, -0.0, -0.0, -0.0, -1.8, -2.0, -0.0, -0.0, 2.23, 4.92, 6.4, 8.48, 5.51, -0.0, -0.0, 1.2, 2.0, 3.22, 4.95, 6.64, 6.73, 5.77, 5.15, 2.95, -0.98, -2.6, -2.24, 0.0, 1.4, 2.8, 1.9, 0.0, -2.97, -3.39, -1.9, -2.0, -2.24, -2.68, -2.0, -2.0, 7.7, 7.7, 7.7, 7.7, 7.7, 7.7, 7.92, 7.92, 8.14, 8.14, 8.4, 8.16, 8.18, 8.85, 8.86, 10.25, 9.8, 9.8, 9.72, 9.59, 10.13, 9.76, 8.55, 8.43, 7.2, 6.64, 3.07, 2.97, 1.34, -0.89, -1.2, -1.26, -1.9, -2.53, -2.58, -3.2, -3.49, -4.07, -4.43, -4.74, -3.63, -2.99, -3.22, -2.98, -3.48, -3.16, -3.16, -3.16, -2.0, -2.0, -1.41, -0.0, -0.0, -0.0, -0.0, -0.0, -0.0, -0.0, -0.0, -0.0, -0.0, -0.0, -0.0, -1.27, -0.0, -0.0, 1.13, 4.92, 7.55, 10.28, 10.91, 11.37, 12.3, 12.3, 10.68, 9.06, 8.33, 8.56, 8.95, 8.4, 4.89, -0.0, -2.0, -2.53, -2.4, 1.79, 0.0, 0.99, 1.98, 0.0, -2.4, -2.97, -2.8, -2.4, -2.68, -2.68, -2.4, -2.4, 7.24, 7.7, 7.7, 7.7, 7.7, 7.66, 7.66, 8.37, 8.14, 8.14, 8.4, 8.16, 8.83, 8.57, 9.22, 9.5, 9.8, 9.19, 9.4, 9.56, 10.63, 9.59, 8.73, 8.31, 6.73, 4.89, 2.23, 0.0, 0.0, -0.89, -1.2, -1.49, -1.86, -2.5, -2.79, -3.43, -4.0, -4.55, -4.55, -4.0, -3.48, -3.15, -2.23, -1.13, -1.0, -3.16, -3.16, -3.48, -3.48, -1.55, -1.55, -1.55, -0.0, -0.0, -0.0, 0.88, -0.0, -0.0, -0.0, 2.68, -0.0, -0.0, -0.0, -0.0, -0.0, -0.0, 1.27, 4.4, 7.37, 9.75, 12.45, 16.03, 18.6, 18.62, 16.54, 14.11, 11.87, 9.9, 8.94, 7.85, 5.09, -0.0, -2.23, -2.84, -2.53, -1.79, 1.34, 0.0, 1.74, 1.0, 0.0, -2.68, -3.13, -3.13, -2.68, -2.68, -2.4, -2.4, 7.24, 7.7, 7.7, 7.7, 7.7, 7.92, 7.92, 8.37, 8.37, 8.14, 8.14, 8.4, 8.81, 8.83, 9.49, 9.84, 9.82, 9.19, 7.96, 8.66, 9.48, 8.22, 8.5, 7.86, 6.59, 4.37, 1.9, 0.6, 0.0, 0.45, -0.89, -1.2, -2.12, -2.4, -2.68, -3.6, -3.88, -4.27, -4.27, -4.0, -3.48, -3.2, -2.86, -2.2, -1.11, -2.98, -3.48, -2.98, -2.98, -1.55, -1.55, -1.55, -1.7, -0.0, -0.0, 1.05, 1.08, -0.0, 2.24, 2.24, 2.24, -0.0, -0.0, -0.0, -0.0, -0.0, 1.27, 3.48, 5.82, 8.43, 10.66, 14.05, 16.22, 16.09, 14.4, 12.7, 9.84, 8.93, 8.43, 7.85, 5.36, 1.9, -1.4, -2.98, -2.98, -2.8, -2.68, -1.26, 0.0, 1.0, 1.79, -2.4, -2.98, -2.97, -2.54, -2.68, -2.4, -2.4, 7.24, 7.7, 7.7, 7.7, 7.7, 7.7, 7.92, 8.37, 8.37, 8.14, 8.14, 8.81, 8.81, 9.09, 9.21, 9.84, 10.13, 9.5, 8.87, 8.58, 7.93, 7.3, 7.32, 7.32, 7.27, 6.23, 4.55, 2.21, 1.24, 0.0, -0.45, -1.34, -1.7, -2.17, -2.91, -3.07, -3.6, -4.11, -3.88, -4.0, -4.07, -3.79, -3.49, -2.82, -2.18, -2.22, -4.11, -2.6, -2.6, -1.3, -1.7, -1.55, -1.7, -0.0, -0.0, 1.41, 1.99, 1.4, 0.0, 0.0, 0.0, -0.0, -0.0, -0.0, -0.0, -0.0, 1.13, 2.48, 3.63, 5.31, 7.59, 10.23, 8.95, 3.58, 4.16, 6.71, 7.93, 7.93, 7.44, 6.68, 5.2, 2.4, -0.0, -1.13, -3.35, -3.35, -3.39, -3.13, -2.24, 0.0, 0.89, -1.9, -2.21, -1.9, -2.0, -2.0, -1.4, -1.4, 7.03, 7.03, 7.7, 7.7, 7.7, 7.7, 7.92, 8.37, 8.37, 8.37, 8.37, 8.55, 8.81, 9.2, 9.48, 10.13, 10.13, 9.82, 9.21, 9.19, 9.13, 8.19, 6.98, 6.7, 6.98, 6.95, 6.23, 4.65, 2.23, 0.57, 0.0, -0.89, -1.79, -2.24, -2.6, -2.91, -3.39, -3.6, -3.72, -4.0, -4.07, -4.11, -4.12, -3.84, -3.47, -3.08, -4.02, -4.02, -2.49, -1.52, -1.41, -1.3, -1.7, -1.7, -0.0, -0.0, 0.89, 1.05, 3.13, 0.0, 0.0, -0.0, -0.0, -0.0, -0.0, 0.98, 1.27, 1.98, 2.48, 2.95, 4.74, 6.08, -4.34, -6.26, -1.8, 1.63, 4.31, 5.68, 6.53, 6.58, 5.21, 3.39, 1.08, -0.0, -1.08, -2.0, -3.16, -3.16, -3.82, -3.58, -2.24, -1.9, -1.9, -1.0, -1.0, -1.2, -0.85, -0.85, 7.48, 7.48, 7.7, 7.7, 7.7, 7.7, 7.92, 8.11, 8.37, 8.37, 8.79, 8.79, 9.07, 9.47, 9.48, 10.13, 10.13, 10.13, 9.21, 9.5, 9.48, 9.08, 7.86, 6.69, 6.35, 6.69, 6.34, 5.65, 3.79, 1.61, 0.0, -0.95, -1.2, -1.79, -2.24, -2.63, -2.91, -3.39, -3.6, -3.72, -4.0, -4.07, -4.71, -4.74, -4.45, -3.84, -4.75, -3.68, -2.66, -1.4, -1.4, -1.52, -1.41, -1.41, -1.3, -0.0, -0.0, 0.89, 1.84, 2.53, 1.79, -0.0, -0.0, -0.0, -0.0, 1.08, 2.0, 3.16, 2.53, 3.82, 4.34, 7.45, 1.79, -6.2, -6.26, -3.79, 0.0, 2.28, 4.6, 5.13, 4.84, 2.98, 0.87, 0.87, -0.0, -2.0, -2.0, -3.16, -3.82, -3.58, -3.13, -2.24, -1.6, -1.26, -1.0, -1.0, -0.85, -0.85, 7.48, 7.48, 7.7, 7.7, 7.7, 7.7, 8.37, 8.11, 8.37, 8.37, 8.79, 8.79, 9.07, 9.47, 9.75, 9.84, 10.13, 10.13, 9.82, 9.21, 9.8, 9.46, 8.5, 7.59, 6.35, 6.35, 6.97, 6.32, 5.06, 2.86, 1.2, 0.0, -0.6, -1.7, -2.24, -2.68, -2.63, -2.91, -3.2, -3.35, -3.88, -4.0, -4.65, -4.71, -4.74, -4.43, -3.83, -2.84, -2.84, -2.36, -1.84, -1.4, -1.23, -1.52, -1.41, -1.41, -1.23, -0.0, 1.4, 1.52, 1.7, -0.0, -0.0, -0.0, -0.0, 1.83, 2.95, 3.16, 4.0, 4.92, 7.1, 9.7, 10.73, 3.9, -3.39, -5.73, -3.58, 0.0, 1.32, 3.33, 3.22, 1.9, 0.99, 0.87, -0.0, -0.98, -1.27, -1.13, -1.4, -2.24, -3.58, -2.54, -2.24, -1.79, -1.26, -1.0, -1.2, -1.2, 7.48, 7.48, 7.7, 7.7, 7.7, 7.7, 7.7, 8.37, 8.37, 8.79, 8.79, 8.79, 9.07, 9.47, 9.47, 10.13, 10.13, 10.13, 9.84, 9.5, 9.82, 9.8, 9.13, 7.9, 6.69, 6.35, 6.35, 6.35, 5.71, 4.45, 2.48, 0.65, 0.0, -1.26, -1.7, -2.24, -2.68, -3.07, -3.32, -3.07, -3.35, -3.72, -4.4, -4.93, -4.94, -4.43, -3.83, -3.49, -2.82, -2.82, -2.32, -2.36, -2.4, -1.18, -1.32, -1.32, -1.52, -0.0, -0.0, 1.4, 3.0, 1.52, -0.0, -0.0, 0.88, 1.99, 3.22, 3.79, 4.82, 5.36, 6.45, 10.2, 11.59, 12.52, 8.94, 2.68, -3.6, -3.35, 0.0, 0.0, 1.79, -1.2, -0.0, -0.0, -0.0, -0.0, -0.0, -0.0, -0.0, -0.0, -1.13, -3.04, -2.97, -2.24, -1.79, -1.58, -1.0, -1.0, 7.48, 7.48, 7.48, 7.7, 7.7, 7.7, 7.7, 8.37, 8.37, 8.79, 8.79, 8.79, 8.79, 9.47, 9.47, 10.13, 9.84, 10.13, 10.13, 9.84, 9.82, 9.5, 9.48, 8.53, 7.6, 6.69, 6.35, 6.69, 6.35, 5.1, 3.49, 2.84, 1.13, 0.0, 0.0, -0.6, -1.34, -1.79, -2.6, -2.5, -2.21, -1.88, -2.5, -4.8, -5.47, -4.71, -4.12, -3.47, -2.82, -2.82, -2.82, -2.36, -2.36, -1.67, -1.73, -1.84, -2.49, -1.32, -0.0, 0.89, 1.4, 0.96, -0.0, -0.0, 1.23, 1.99, 3.63, 4.98, 5.73, 6.26, 6.94, 8.56, 10.6, 11.62, 11.96, 9.83, 2.84, -4.0, -3.39, -3.13, -3.82, -2.84, -1.98, -1.8, -1.49, -0.0, -0.0, 0.96, -0.0, -0.0, -0.0, -0.88, -3.58, -3.13, -2.24, -1.79, -0.0, -0.0, 7.48, 7.48, 7.48, 7.7, 7.7, 7.7, 7.7, 8.14, 8.37, 8.79, 8.79, 8.79, 9.19, 9.47, 9.47, 9.84, 10.13, 10.13, 9.84, 9.84, 10.13, 9.5, 9.19, 8.87, 8.24, 7.6, 6.98, 6.98, 6.98, 6.35, 5.72, 4.12, 2.44, 1.13, 0.0, 0.0, -0.95, -1.34, -1.7, -2.4, -2.21, -1.61, -1.16, -2.5, -4.11, -5.47, -4.94, -3.47, -2.82, -2.82, -2.82, -2.36, -2.36, -2.32, -2.32, -1.84, -2.66, -1.4, -0.0, -0.0, -0.0, -0.0, -0.0, 0.95, 1.72, 2.49, 4.89, 5.73, 5.81, 6.71, 8.0, 9.24, 9.49, 9.49, 10.6, 11.51, 5.82, -3.16, -4.0, -2.97, -3.58, -2.68, -2.21, -1.8, -1.8, -0.88, -0.0, -0.0, -0.96, -0.89, -0.0, -0.0, -2.23, -2.6, -2.0, -1.79, -0.0, -0.0, 7.73, 7.73, 7.48, 7.48, 7.7, 7.7, 8.14, 8.14, 8.37, 8.37, 9.04, 8.79, 9.19, 9.47, 9.47, 9.84, 10.13, 10.13, 9.84, 10.13, 9.84, 9.5, 9.21, 8.87, 8.56, 8.56, 8.24, 7.32, 6.98, 6.98, 6.35, 5.1, 3.84, 2.22, 1.13, 0.54, 0.0, -0.63, -1.34, -2.12, -2.15, -1.61, -1.13, -0.96, -3.22, -4.0, -4.65, -4.11, -3.12, -2.84, -2.61, -2.36, -2.36, -2.16, -2.32, -2.16, -2.54, -1.32, -0.89, -0.89, -0.0, -0.0, -0.0, 0.95, 1.84, 3.55, 5.06, 5.51, 5.51, 6.16, 7.85, 9.7, 10.6, 9.9, 10.63, 11.6, 8.17, 0.0, -3.58, -2.23, -2.53, -2.17, -2.5, -1.88, -1.8, -1.66, -2.4, -2.8, -2.6, -0.96, -0.0, 0.88, 1.55, -0.0, -0.0, -0.0, -0.0, -0.0, 7.73, 7.73, 7.73, 7.48, 7.7, 7.7, 8.14, 8.14, 8.37, 8.37, 8.79, 9.04, 9.19, 9.47, 9.47, 9.84, 10.13, 9.84, 10.13, 10.13, 9.84, 9.5, 9.5, 9.21, 9.21, 8.87, 8.24, 7.93, 7.32, 6.98, 6.97, 5.72, 5.08, 3.49, 2.22, 1.84, 0.54, 0.0, -0.45, -1.2, -1.86, -1.88, -1.8, -1.23, -1.08, -2.99, -4.74, -3.49, -2.86, -2.86, -2.84, -2.82, -2.36, -2.16, -2.16, -2.16, -2.16, -1.8, -1.65, -0.89, -0.83, -0.0, -0.0, 0.89, 1.84, 2.64, 3.77, 6.08, 5.36, 5.58, 7.12, 8.9, 11.18, 12.49, 12.3, 12.56, 11.79, 8.06, 2.53, -1.27, -2.0, -1.49, -2.24, -2.15, -2.21, -2.68, -3.35, -3.35, -3.07, -1.66, -0.0, -0.0, 1.55, 1.99, 1.66, 1.8, 1.8, 1.8, 7.73, 7.73, 7.73, 7.73, 7.7, 8.14, 8.14, 8.14, 8.37, 8.37, 8.79, 9.04, 9.45, 9.47, 9.47, 9.84, 10.13, 10.13, 10.13, 9.84, 10.13, 9.5, 9.21, 9.5, 9.21, 8.87, 8.58, 7.95, 7.6, 7.6, 6.98, 6.67, 6.01, 4.75, 3.49, 2.86, 1.61, 0.71, 0.0, -0.89, -1.26, -1.9, -1.61, -2.48, -2.44, -3.47, -3.63, -2.86, -2.86, -2.86, -2.84, -2.36, -2.16, -2.16, -1.67, -1.67, -1.8, -1.8, -1.65, -0.84, -0.0, -0.0, -0.0, 1.03, 1.98, 1.84, 1.72, 4.56, 6.4, 6.71, 5.36, 6.64, 9.97, 13.01, 13.86, 12.3, 11.6, 11.37, 9.24, 4.0, -0.87, -1.8, -1.26, -1.79, -2.6, -2.68, -2.21, -2.41, -1.98, -1.6, -0.79, -0.0, 1.7, 3.22, 2.98, 3.35, 3.35, 3.35, 7.73, 7.73, 7.73, 7.73, 7.73, 8.14, 8.14, 8.14, 8.14, 8.37, 8.79, 8.79, 9.04, 9.47, 9.47, 9.84, 10.13, 10.13, 9.84, 10.13, 9.84, 9.5, 9.21, 9.5, 9.21, 9.21, 8.87, 8.24, 8.76, 6.98, 7.6, 7.3, 6.95, 5.71, 4.45, 4.11, 2.86, 1.88, 0.8, 0.45, -0.63, -1.26, -1.61, -2.23, -2.51, -2.84, -2.51, -2.23, -2.51, -2.86, -2.84, -2.36, -2.16, -1.8, -1.8, -1.8, -1.23, -1.8, -1.8, -1.12, -0.0, -0.0, -0.0, 0.88, 0.96, 0.96, 1.99, 3.0, 5.72, 7.06, 4.89, 5.58, 8.06, 12.42, 14.55, 11.59, 7.2, 6.79, 8.3, 6.21, 0.0, -1.6, -0.87, -0.6, -1.6, -1.79, -1.6, -0.0, -0.0, -0.0, -0.0, -0.0, 1.83, 3.22, 3.72, 3.72, 3.22, 3.22, 7.73, 7.73, 7.73, 7.73, 7.73, 8.4, 8.4, 8.14, 8.14, 8.37, 8.79, 8.79, 9.04, 9.45, 9.47, 9.84, 9.84, 10.13, 10.13, 10.13, 9.84, 9.5, 9.5, 9.5, 9.21, 9.21, 8.59, 8.58, 7.61, 8.01, 6.7, 7.27, 6.97, 6.34, 5.69, 4.74, 3.49, 2.84, 1.61, 0.95, 0.0, -0.6, -0.57, -1.2, -1.88, -1.88, -1.88, -1.4, -1.84, -2.22, -2.4, -2.36, -1.67, -1.23, -1.12, -1.12, -0.57, -1.23, -1.23, -1.12, -0.58, -0.0, -0.0, -0.0, 0.96, 0.96, 1.05, 1.99, 4.74, 6.08, 5.37, 5.95, 7.1, 10.73, 15.2, 12.96, 5.81, 2.8, 4.82, 5.81, 4.47, 1.58, 0.85, 0.99, 0.0, 0.0, 0.0, 0.45, 3.82, 2.53, -0.0, -0.0, 0.87, 2.53, 3.22, 4.29, 4.01, 4.01, 7.5, 7.5, 7.73, 7.73, 7.73, 8.16, 8.4, 8.4, 8.14, 8.37, 8.79, 8.79, 8.79, 9.45, 9.84, 9.84, 9.84, 10.13, 10.13, 10.13, 9.84, 9.84, 9.5, 9.21, 9.5, 9.21, 8.87, 8.87, 8.58, 7.93, 6.98, 6.7, 6.98, 6.97, 6.32, 5.08, 4.43, 3.48, 2.23, 1.58, 0.89, -0.0, -0.0, -0.0, -0.71, -0.54, -1.2, -0.65, -0.61, -1.23, -1.7, -1.84, -1.14, -1.14, -0.58, -0.57, -0.57, -0.0, -0.62, -1.23, -0.0, -0.0, -0.0, -0.0, -0.0, 0.96, 1.84, 1.99, 3.72, 5.37, 5.37, 7.28, 8.94, 10.89, 14.99, 15.2, 11.06, 7.63, 6.51, 7.11, 6.66, 5.81, 4.85, 4.15, 3.22, 0.95, 0.63, 1.7, 4.47, 4.34, 2.21, -0.0, -0.0, 1.13, 2.3, 4.01, 3.9, 3.9, 7.5, 7.5, 7.73, 7.73, 8.16, 8.16, 8.16, 8.4, 8.4, 8.14, 8.79, 8.79, 9.04, 9.45, 9.45, 10.11, 9.84, 10.13, 9.84, 10.13, 9.84, 9.84, 9.5, 9.5, 9.21, 9.21, 8.87, 8.59, 8.87, 8.56, 7.61, 6.98, 6.98, 6.98, 6.95, 6.01, 5.06, 4.11, 3.43, 2.21, 2.12, 1.34, 0.6, 0.6, -0.0, -0.0, -0.0, -0.0, -0.0, -0.55, -1.16, -1.16, -1.16, -0.58, -0.58, -0.58, -0.0, -0.0, -0.0, -0.57, -0.0, -0.0, 1.32, -0.0, -0.0, -0.0, 1.84, 1.84, 2.99, 3.91, 4.74, 6.98, 10.41, 12.07, 13.76, 14.75, 15.01, 13.92, 12.27, 10.7, 8.49, 7.56, 6.65, 5.59, 4.66, 2.0, 2.0, 5.09, 5.36, 4.47, 3.39, 2.8, 1.9, 1.2, 1.98, 2.68, 4.01, 4.01, 7.06, 7.06, 7.5, 7.73, 8.16, 8.16, 8.16, 8.4, 8.4, 8.14, 8.79, 8.79, 9.04, 9.45, 9.45, 10.11, 10.13, 10.13, 9.84, 9.84, 10.13, 9.84, 10.13, 9.5, 9.21, 9.21, 8.87, 8.59, 9.19, 8.58, 8.53, 7.6, 7.3, 7.3, 7.27, 6.92, 5.69, 5.01, 4.07, 3.43, 2.91, 2.24, 2.12, 1.7, 1.2, 0.6, -0.0, -0.0, -0.0, -0.0, -0.0, -0.0, -0.0, -0.0, -0.0, -0.0, -0.0, -0.0, -0.0, -0.0, -0.0, 0.57, 1.18, -0.0, -0.0, -0.0, 1.7, 1.84, 1.84, 2.6, 4.56, 5.84, 10.46, 12.27, 13.41, 13.41, 13.86, 14.28, 14.3, 12.07, 9.26, 6.98, 5.75, 5.34, 5.59, 5.09, 5.09, 5.29, 4.92, 4.34, 4.34, 3.9, 2.97, 2.8, 2.21, 2.53, 3.35, 3.35, 7.06, 7.06, 7.5, 7.73, 8.16, 8.16, 8.16, 8.4, 8.4, 8.14, 8.79, 8.79, 8.79, 9.45, 9.73, 10.11, 10.13, 9.84, 9.84, 9.84, 10.13, 9.84, 9.84, 9.5, 9.21, 9.21, 9.21, 9.21, 9.5, 9.19, 8.87, 8.24, 7.6, 7.3, 7.27, 6.95, 6.28, 5.93, 4.94, 4.55, 3.6, 3.07, 3.07, 3.9, 2.12, 1.26, 0.57, -0.0, -0.0, -0.0, -0.0, -0.0, -0.0, -0.0, -0.0, -0.0, -0.0, -0.0, 0.57, -0.0, -0.0, -0.0, 1.25, 0.95, -0.0, -0.0, 0.88, 1.84, 1.84, 2.6, 3.63, 4.74, 8.93, 13.02, 13.32, 12.04, 11.51, 12.27, 13.65, 11.86, 8.67, 5.75, 4.19, 4.22, 4.22, 4.66, 4.38, 4.47, 4.82, 4.82, 4.82, 4.82, 4.38, 3.9, 3.35, 2.98, 3.22, 3.16, 7.06, 7.06, 7.5, 7.5, 8.16, 8.16, 8.16, 8.4, 8.4, 8.81, 8.79, 8.79, 8.79, 9.19, 9.73, 9.84, 9.84, 10.13, 9.84, 9.84, 9.84, 10.13, 9.84, 9.5, 9.5, 9.21, 9.21, 9.21, 9.21, 9.5, 9.19, 8.85, 8.22, 7.59, 7.55, 7.23, 6.87, 6.23, 5.86, 5.21, 4.8, 3.87, 3.58, 4.82, 3.39, 2.4, 1.58, 0.59, 0.55, 0.54, 0.54, 0.54, 0.54, 0.54, -0.0, -0.0, -0.0, -0.0, 0.57, 0.57, -0.0, -0.0, 1.32, 0.89, 0.96, -0.0, -0.0, 0.89, 1.98, 2.8, 2.99, 4.74, 8.0, 11.79, 14.64, 12.41, 10.25, 10.85, 11.3, 11.03, 8.91, 5.82, 3.58, 2.53, 2.97, 4.02, 4.47, 4.82, 5.29, 5.73, 5.73, 5.73, 5.29, 4.82, 4.4, 3.6, 3.22, 3.22, 7.06, 7.06, 7.5, 7.5, 8.16, 8.16, 8.16, 8.16, 8.4, 8.81, 8.81, 9.07, 9.07, 9.47, 9.47, 10.11, 9.84, 9.84, 10.13, 9.84, 9.84, 9.84, 9.79, 9.5, 9.5, 9.5, 9.21, 9.21, 9.21, 9.5, 9.19, 8.87, 8.82, 8.19, 7.55, 7.51, 7.44, 7.15, 6.7, 6.28, 5.81, 4.77, 4.02, 3.98, 5.51, 3.6, 2.53, 1.58, 1.19, 1.19, 1.19, 1.19, 1.19, 1.19, 1.19, 0.61, -0.0, 0.58, 0.57, 1.12, 0.61, 0.56, 0.58, 1.25, -0.0, -0.0, -0.0, 0.89, 1.98, 2.8, 3.63, 3.79, 7.06, 10.05, 12.56, 11.64, 9.97, 7.85, 6.79, 6.08, 5.82, 4.22, 2.97, 2.68, 3.47, 4.66, 5.59, 6.64, 6.65, 6.65, 6.2, 6.2, 6.2, 5.29, 4.57, 4.4, 3.6, 3.22, 7.06, 7.06, 7.5, 7.5, 8.16, 8.16, 8.16, 8.16, 8.4, 8.81, 8.81, 8.81, 9.07, 9.47, 9.73, 9.73, 10.11, 9.84, 9.84, 9.48, 9.49, 9.49, 9.5, 9.5, 9.21, 9.5, 9.5, 9.5, 9.5, 9.19, 9.17, 8.56, 8.53, 8.5, 7.86, 7.81, 7.8, 7.35, 7.07, 6.8, 6.1, 5.57, 4.88, 4.02, 4.43, 5.51, 3.43, 2.44, 2.2, 2.2, 1.73, 1.73, 1.73, 1.73, 1.73, 1.19, 0.54, 0.53, 0.62, 1.12, 1.2, 0.56, -0.0, -0.0, 1.25, 1.4, -0.0, 1.52, 1.84, 2.8, 3.63, 4.11, 6.0, 7.06, 8.93, 11.16, 10.04, 6.45, 1.4, 0.0, 2.4, 3.58, 4.57, 5.43, 6.54, 7.47, 7.89, 8.01, 7.55, 7.15, 6.71, 6.71, 6.2, 5.09, 4.4, 4.0, 3.35, 3.35, 7.1, 7.1, 7.5, 7.5, 8.16, 8.16, 8.16, 8.16, 8.56, 8.81, 8.81, 8.81, 9.07, 9.47, 9.73, 9.73, 10.11, 9.84, 10.13, 9.49, 9.49, 9.49, 9.5, 9.5, 9.5, 10.13, 9.82, 9.21, 9.19, 9.17, 9.17, 9.13, 9.13, 9.08, 8.78, 8.15, 7.73, 7.35, 7.23, 7.2, 6.6, 6.47, 5.26, 4.92, 4.47, 4.34, 4.0, 3.48, 2.86, 2.86, 2.44, 2.44, 2.44, 2.2, 2.2, 1.88, 1.16, 0.59, 1.14, 1.12, 1.12, 0.56, -0.0, -0.0, 1.25, 1.4, 1.52, 1.41, 2.16, 2.99, 2.99, 3.22, 5.21, 4.98, 7.06, 9.46, 11.27, 11.27, 7.53, 4.6, 4.84, 6.7, 8.49, 9.74, 9.6, 9.97, 9.24, 8.49, 7.6, 7.15, 6.71, 6.2, 5.51, 4.98, 4.0, 3.82, 3.82, 3.82, 7.1, 7.1, 7.76, 7.76, 7.76, 8.16, 8.16, 8.16, 8.56, 8.81, 8.81, 8.81, 9.07, 9.47, 9.73, 9.73, 9.47, 9.47, 9.48, 9.49, 9.22, 9.22, 9.5, 9.84, 9.84, 10.13, 9.5, 9.5, 9.48, 9.17, 9.46, 9.46, 9.46, 9.13, 9.08, 8.73, 8.08, 7.9, 7.61, 7.71, 7.09, 6.79, 6.16, 5.34, 4.92, 4.88, 4.6, 4.0, 3.48, 3.48, 2.86, 2.86, 2.44, 2.4, 2.4, 2.4, 1.7, 1.16, 1.14, 1.67, 1.8, 0.57, -0.0, -0.0, 1.32, 2.66, 3.0, 1.52, 2.99, 2.99, 2.76, 2.76, 3.79, 4.98, 5.94, 7.37, 10.18, 13.49, 14.17, 12.79, 11.88, 11.75, 12.25, 11.88, 10.8, 9.72, 8.94, 8.05, 7.55, 7.15, 6.26, 4.98, 4.6, 4.0, 3.82, 3.58, 3.58, 3.58, 7.1, 7.1, 7.53, 7.76, 7.76, 8.18, 8.43, 8.43, 8.56, 8.81, 8.81, 8.81, 9.07, 9.47, 9.47, 9.47, 9.47, 9.48, 9.48, 9.49, 9.22, 9.22, 9.5, 9.84, 9.84, 9.82, 9.5, 9.48, 9.17, 9.46, 9.46, 9.46, 9.72, 9.13, 9.37, 8.73, 8.37, 7.9, 7.76, 7.6, 7.51, 7.26, 6.51, 6.23, 5.81, 5.33, 4.77, 4.4, 4.0, 3.48, 3.48, 2.86, 2.86, 2.84, 2.84, 3.08, 2.4, 1.7, 1.7, 1.84, 1.67, 1.14, 0.57, 0.56, 1.2, 2.66, 3.0, 2.8, 2.6, 1.99, 1.52, 1.99, 4.11, 4.89, 5.6, 6.57, 8.99, 11.87, 13.64, 13.83, 13.89, 13.61, 13.33, 11.95, 10.18, 8.49, 7.56, 7.55, 6.65, 5.36, 4.66, 3.35, 3.72, 3.82, 3.58, 3.58, 3.58, 3.58, 7.1, 7.1, 7.53, 7.76, 7.76, 8.18, 8.43, 8.43, 8.83, 8.56, 8.81, 8.81, 8.81, 9.47, 9.47, 9.2, 9.48, 9.48, 9.49, 9.49, 9.22, 9.5, 9.5, 9.5, 9.5, 9.5, 9.19, 9.48, 9.48, 9.77, 9.77, 9.77, 9.72, 9.42, 8.78, 8.38, 8.55, 8.43, 8.28, 8.51, 7.81, 7.51, 6.97, 6.61, 6.26, 5.81, 5.24, 4.9, 4.55, 4.37, 4.07, 3.49, 3.49, 3.12, 2.84, 3.49, 2.84, 2.4, 2.18, 2.18, 2.18, 1.67, 0.57, 0.56, 1.2, 2.82, 2.49, 1.84, 1.84, 1.84, 1.99, 2.76, 4.11, 4.89, 5.58, 6.57, 8.06, 10.68, 11.5, 11.64, 12.89, 14.46, 14.05, 11.71, 9.28, 8.05, 7.11, 6.21, 5.36, 3.6, 2.53, 2.8, 2.8, 3.13, 2.68, 2.21, 2.21, 2.21, 7.1, 7.1, 7.53, 7.53, 8.18, 8.18, 8.18, 8.43, 8.83, 8.83, 8.83, 8.81, 8.81, 9.2, 9.48, 9.48, 9.48, 9.21, 9.49, 9.49, 9.5, 9.5, 9.21, 9.5, 9.21, 9.5, 9.48, 9.48, 9.77, 10.09, 9.77, 10.06, 9.13, 9.37, 8.73, 8.65, 8.93, 8.82, 8.68, 8.91, 8.3, 8.0, 7.26, 7.06, 6.68, 6.26, 5.7, 5.51, 4.9, 4.55, 4.07, 4.07, 3.49, 3.49, 3.49, 3.49, 3.22, 2.84, 2.84, 2.84, 2.4, 1.7, 1.14, 1.1, 1.1, 2.54, 1.4, 1.32, 3.0, 2.99, 1.99, 3.22, 3.79, 4.54, 5.58, 6.21, 7.35, 9.24, 10.0, 10.04, 11.26, 14.05, 13.91, 11.28, 9.36, 7.6, 5.81, 3.58, 2.24, -0.0, -0.0, 1.9, 2.24, 1.79, 0.0, 0.0, 0.0, 0.0, 7.1, 7.1, 7.53, 7.53, 7.53, 8.18, 8.18, 8.18, 8.83, 8.83, 8.83, 8.83, 8.83, 8.83, 9.21, 9.21, 9.21, 9.49, 9.49, 9.49, 9.5, 9.5, 9.21, 9.5, 9.19, 9.19, 9.8, 9.8, 9.8, 10.09, 9.77, 9.72, 9.42, 8.78, 8.73, 8.65, 9.1, 9.1, 8.96, 8.8, 8.72, 8.42, 7.74, 7.51, 7.13, 6.71, 6.16, 5.57, 5.31, 4.55, 4.55, 4.07, 4.07, 3.49, 3.79, 3.79, 3.49, 2.84, 3.22, 3.49, 3.12, 2.4, 1.26, 1.12, 1.1, 1.2, 2.54, 2.4, 2.66, 2.99, 2.95, 2.95, 3.79, 4.54, 5.24, 5.49, 6.82, 8.21, 9.05, 9.43, 10.4, 12.04, 12.7, 11.52, 9.39, 5.36, 1.79, 1.34, -1.79, -1.34, 2.24, -0.0, 1.79, 1.79, -1.58, -1.4, -1.4, -1.4, 6.88, 6.88, 7.53, 7.53, 7.53, 8.2, 8.46, 8.18, 8.57, 8.57, 8.83, 8.83, 8.83, 8.83, 9.21, 9.21, 9.49, 9.49, 9.49, 9.5, 9.21, 8.87, 8.87, 9.19, 9.19, 9.5, 10.12, 10.12, 10.4, 10.09, 10.06, 9.42, 9.37, 9.08, 8.73, 9.21, 9.48, 9.1, 9.35, 9.2, 8.51, 8.48, 8.17, 7.52, 7.13, 6.71, 6.68, 6.16, 5.57, 5.31, 4.9, 4.55, 4.07, 4.07, 4.07, 3.79, 3.49, 3.49, 3.49, 3.79, 3.49, 3.12, 1.7, 1.14, 1.12, 1.65, 2.4, 2.67, 3.55, 2.8, 2.76, 3.16, 2.95, 3.79, 4.43, 5.49, 6.18, 6.79, 7.81, 8.67, 9.6, 10.43, 11.5, 11.79, 7.56, 0.89, -2.24, 1.34, 0.0, -1.26, -1.79, -2.24, -2.24, -2.24, -1.9, -2.8, -2.8, -2.8, 7.13, 7.13, 7.55, 7.55, 7.8, 8.2, 8.2, 8.2, 8.85, 8.85, 8.85, 8.85, 8.85, 9.12, 9.49, 9.49, 9.49, 9.22, 9.5, 9.21, 9.21, 8.87, 9.19, 9.19, 9.5, 10.12, 10.12, 10.4, 10.12, 10.09, 9.72, 9.42, 9.02, 9.3, 8.94, 9.21, 9.21, 9.48, 9.35, 9.2, 9.21, 8.48, 8.17, 7.97, 7.58, 7.15, 6.68, 6.16, 5.99, 5.57, 5.31, 4.55, 4.55, 4.29, 4.29, 4.07, 3.79, 3.79, 4.11, 4.11, 3.79, 3.49, 2.4, 1.16, 0.58, 1.84, 1.65, 2.54, 3.6, 3.77, 3.0, 3.22, 2.48, 2.95, 3.63, 4.74, 5.37, 6.55, 7.2, 8.4, 9.36, 9.24, 10.18, 11.61, 7.15, -3.95, -2.24, 0.89, 2.24, 1.34, -2.24, -2.24, -1.79, -1.9, -2.21, -2.8, -2.8, -2.8, 7.13, 6.9, 7.55, 7.55, 7.55, 7.95, 8.2, 8.2, 8.58, 8.85, 8.85, 8.85, 8.85, 8.85, 8.85, 9.22, 9.5, 9.21, 9.21, 9.21, 8.87, 9.19, 9.5, 9.5, 9.82, 9.82, 10.12, 10.12, 10.09, 10.06, 9.42, 9.37, 9.02, 9.3, 9.3, 9.58, 9.21, 9.48, 9.35, 9.2, 9.21, 8.48, 8.21, 7.87, 7.58, 7.15, 6.71, 6.68, 6.16, 5.99, 5.4, 5.08, 4.93, 4.55, 4.29, 4.07, 3.79, 4.07, 4.41, 4.41, 4.41, 4.07, 2.86, 1.73, 1.16, 1.16, 1.73, 2.4, 3.27, 3.6, 3.4, 3.33, 2.99, 1.99, 2.76, 3.91, 5.49, 6.18, 7.2, 7.76, 8.72, 8.82, 9.54, 11.59, -2.24, -3.95, -2.4, -0.0, 2.24, 1.79, -1.34, -2.4, -2.8, -2.21, -2.8, -2.8, -2.8, -2.8, 7.16, 7.16, 7.57, 7.57, 7.83, 8.22, 7.95, 8.2, 8.2, 8.58, 8.86, 8.86, 8.86, 8.86, 8.86, 9.21, 9.21, 9.5, 9.21, 9.21, 9.21, 9.21, 9.21, 9.82, 9.82, 9.82, 10.12, 10.09, 9.77, 9.46, 9.08, 9.37, 9.02, 9.3, 9.3, 9.76, 9.21, 9.1, 8.96, 9.2, 9.21, 8.91, 8.64, 8.3, 7.97, 7.15, 7.15, 6.68, 6.23, 6.16, 5.81, 5.47, 5.08, 4.93, 4.65, 4.07, 4.07, 4.07, 4.07, 4.65, 4.65, 4.07, 3.79, 2.44, 1.19, 0.54, 0.83, 1.73, 3.4, 3.4, 3.4, 3.77, 2.82, 2.8, 2.76, 3.63, 5.15, 6.6, 7.12, 7.12, 7.63, 8.56, 9.68, 8.05, -1.79, -4.15, -2.21, -1.0, -0.0, 1.34, -1.79, -2.4, -2.21, -2.53, -2.53, -2.21, -2.21, -2.21, 7.16, 7.16, 7.16, 7.57, 7.57, 8.22, 8.22, 8.22, 8.22, 8.59, 8.59, 8.59, 8.59, 8.59, 8.87, 9.5, 9.5, 9.5, 9.5, 9.5, 9.5, 9.5, 9.82, 9.82, 9.82, 9.8, 10.09, 9.48, 9.46, 9.42, 9.37, 9.37, 9.37, 9.86, 9.86, 9.76, 9.63, 9.1, 8.96, 9.42, 9.21, 8.91, 8.64, 8.3, 7.97, 7.58, 7.15, 6.71, 6.68, 6.16, 5.81, 5.6, 5.47, 5.08, 4.65, 4.29, 4.29, 4.29, 4.37, 4.29, 4.29, 4.29, 4.07, 2.86, 1.76, 1.08, 0.57, 1.23, 3.55, 4.42, 3.55, 3.55, 2.82, 3.72, 3.91, 3.63, 4.43, 5.95, 6.21, 6.57, 6.94, 7.85, 11.15, 7.6, -2.24, -4.66, -2.84, -1.74, -1.2, -1.79, -2.24, -2.4, -2.8, -2.53, -2.53, -2.21, -2.21, -2.21, 6.92, 6.92, 6.92, 7.57, 7.57, 7.96, 7.96, 7.96, 8.23, 8.23, 8.59, 8.59, 8.87, 8.87, 8.87, 9.5, 9.5, 9.5, 9.5, 9.21, 9.84, 10.13, 9.82, 9.5, 9.5, 9.48, 9.17, 9.46, 9.42, 9.42, 9.37, 9.59, 9.59, 9.86, 9.86, 9.76, 9.48, 9.35, 9.2, 9.42, 9.21, 8.91, 8.64, 8.3, 7.97, 7.58, 7.15, 7.15, 6.68, 6.47, 5.88, 5.81, 5.6, 5.08, 4.93, 4.55, 4.55, 4.55, 4.55, 4.37, 4.07, 4.29, 4.07, 3.48, 2.86, 1.76, 1.11, 1.23, 3.55, 4.58, 3.97, 3.72, 2.8, 3.47, 3.91, 4.11, 4.54, 4.89, 5.58, 5.58, 6.16, 6.94, 10.25, 7.15, -2.21, -5.51, -3.93, -3.72, -2.98, -3.13, -2.97, -2.97, -2.8, -2.53, -2.53, -2.21, -2.21, -2.21, 6.92, 6.92, 6.92, 7.32, 7.85, 7.85, 8.23, 8.23, 8.23, 8.23, 8.23, 8.59, 8.59, 8.87, 9.21, 9.5, 9.5, 9.5, 9.84, 9.84, 9.84, 9.84, 9.82, 9.5, 9.48, 9.17, 9.13, 9.42, 9.42, 9.42, 9.94, 9.94, 9.94, 9.86, 9.5, 9.76, 9.48, 9.35, 9.2, 9.2, 9.01, 8.72, 8.48, 8.21, 7.87, 7.51, 7.13, 7.15, 6.68, 6.47, 6.3, 5.81, 5.81, 5.08, 5.08, 4.55, 4.8, 4.8, 4.4, 4.0, 4.37, 4.07, 4.07, 4.07, 3.15, 2.22, 1.76, 1.76, 2.2, 4.58, 4.58, 3.72, 2.8, 3.91, 3.91, 3.79, 3.93, 4.98, 5.37, 5.6, 5.6, 7.54, 8.9, 7.6, 0.0, -5.29, -4.22, -3.74, -3.95, -3.58, -3.47, -2.98, -2.6, -2.21, -1.4, -1.4, -1.4, -1.4, 7.19, 7.19, 7.19, 7.59, 7.59, 7.59, 7.96, 7.96, 8.24, 8.24, 8.53, 8.59, 8.87, 9.21, 9.5, 9.5, 9.84, 10.13, 10.13, 9.84, 9.84, 9.82, 9.5, 9.48, 9.17, 8.85, 8.53, 9.08, 9.42, 9.66, 9.66, 9.94, 9.94, 9.86, 9.76, 9.21, 9.48, 9.35, 9.2, 9.2, 9.01, 8.72, 8.48, 8.21, 7.87, 7.51, 7.13, 7.15, 6.68, 6.47, 6.47, 5.99, 5.4, 5.31, 5.31, 5.31, 4.9, 4.8, 4.4, 4.27, 4.0, 4.0, 4.07, 3.73, 3.48, 2.86, 2.22, 1.76, 2.44, 3.72, 3.55, 3.72, 3.72, 3.47, 3.91, 4.11, 3.93, 4.29, 4.6, 4.98, 5.94, 7.1, 8.49, 8.45, 3.35, -4.92, -4.85, -4.47, -4.47, -4.02, -3.47, -2.98, -2.6, -2.53, -1.4, -1.2, -1.2, -1.2, 6.94, 6.94, 7.19, 7.59, 7.59, 7.59, 7.87, 8.24, 8.24, 8.24, 8.59, 8.87, 9.21, 9.21, 9.5, 9.84, 10.13, 10.13, 10.13, 9.84, 10.13, 9.5, 9.5, 9.17, 8.85, 8.85, 8.82, 9.08, 9.42, 9.66, 10.01, 9.94, 9.94, 9.86, 9.76, 9.48, 9.48, 9.35, 9.2, 9.2, 9.01, 8.72, 8.48, 8.21, 7.87, 7.52, 7.6, 7.15, 6.68, 6.6, 6.47, 5.99, 5.51, 5.51, 5.51, 5.51, 5.09, 4.8, 4.4, 3.88, 3.88, 4.0, 4.0, 3.78, 3.16, 2.86, 2.48, 2.48, 1.76, 2.8, 3.0, 3.72, 3.47, 2.8, 3.91, 3.63, 3.79, 3.48, 3.93, 5.4, 5.94, 7.15, 8.49, 9.8, 6.94, -2.53, -5.73, -4.92, -4.47, -4.38, -3.47, -2.97, -2.21, -1.4, -1.4, 0.0, 0.0, 0.0, 6.94, 6.94, 6.94, 6.94, 7.33, 7.6, 7.6, 8.24, 8.24, 8.23, 8.87, 8.87, 9.21, 9.5, 9.84, 10.13, 10.13, 10.13, 9.84, 9.5, 9.5, 9.21, 9.19, 9.17, 8.85, 8.85, 9.08, 9.08, 9.42, 9.66, 9.66, 9.94, 9.86, 9.86, 9.76, 9.63, 9.63, 9.35, 9.2, 9.2, 9.01, 8.72, 8.48, 8.21, 7.87, 7.52, 7.15, 7.15, 6.68, 6.61, 6.6, 5.7, 5.51, 5.51, 5.51, 5.09, 5.09, 5.02, 4.6, 4.11, 3.88, 3.72, 3.72, 3.43, 3.16, 2.58, 2.23, 2.23, 1.8, 1.8, 2.48, 3.91, 3.91, 2.99, 4.11, 4.11, 3.79, 4.29, 4.4, 4.98, 5.73, 7.15, 8.49, 10.25, 10.14, 3.93, -3.93, -4.66, -4.66, -4.57, -4.15, -2.98, -1.9, 0.0, 0.0, 0.0, 0.0, 0.0, 6.94, 6.94, 6.94, 6.94, 7.33, 7.6, 7.87, 7.96, 8.23, 8.87, 8.59, 9.21, 9.5, 9.5, 10.13, 10.13, 10.13, 9.84, 9.5, 9.5, 9.21, 9.5, 9.19, 8.87, 8.85, 9.13, 9.42, 9.42, 9.42, 9.66, 9.94, 9.94, 9.86, 9.86, 9.76, 9.76, 9.63, 9.35, 9.35, 9.2, 9.01, 8.72, 8.48, 8.21, 7.87, 7.58, 7.15, 7.15, 6.68, 6.68, 6.68, 5.78, 5.24, 5.24, 5.24, 5.24, 5.24, 4.77, 4.6, 4.11, 4.11, 3.6, 3.35, 3.14, 2.84, 2.51, 2.23, 2.23, 1.84, 1.84, 2.23, 3.22, 2.76, 4.43, 4.29, 4.29, 4.29, 4.0, 4.34, 4.82, 5.73, 7.15, 8.49, 10.28, 11.59, 9.24, 3.16, -3.16, -4.22, -4.8, -4.22, -3.58, -1.74, 0.0, 0.0, 0.99, 0.99, 0.99, 6.7, 6.7, 6.94, 6.94, 7.33, 7.59, 7.96, 8.23, 8.87, 8.59, 8.86, 9.21, 9.5, 9.5, 9.84, 9.84, 9.84, 9.84, 9.5, 9.5, 9.21, 9.19, 9.19, 8.87, 9.13, 9.13, 9.42, 9.42, 9.42, 9.66, 9.94, 9.59, 9.86, 9.86, 9.76, 9.76, 9.63, 9.35, 9.35, 9.2, 9.01, 8.72, 8.48, 8.17, 7.97, 7.58, 7.15, 6.71, 6.71, 6.71, 6.26, 5.78, 5.34, 5.33, 5.33, 5.33, 5.33, 4.8, 4.77, 4.3, 3.87, 3.82, 3.6, 2.79, 2.79, 2.53, 2.53, 2.21, 1.88, 1.88, 1.88, 2.21, 2.79, 5.6, 4.8, 4.4, 4.4, 4.34, 4.34, 4.92, 5.81, 7.15, 8.05, 9.83, 11.62, 12.07, 9.8, 5.94, 2.53, 0.0, -1.98, -2.23, -0.87, 0.0, 0.87, 2.0, 2.0, 2.0, 6.7, 6.7, 6.94, 6.94, 7.33, 7.59, 7.96, 8.23, 8.87, 8.59, 8.86, 9.21, 9.5, 9.5, 9.84, 9.84, 9.84, 9.84, 9.5, 9.5, 9.21, 9.19, 9.19, 8.87, 9.13, 9.13, 9.42, 9.42, 9.42, 9.66, 9.94, 9.59, 9.86, 9.86, 9.76, 9.76, 9.63, 9.35, 9.35, 9.2, 9.01, 8.72, 8.48, 8.17, 7.97, 7.58, 7.15, 6.71, 6.71, 6.71, 6.26, 5.78, 5.34, 5.33, 5.33, 5.33, 5.33, 4.8, 4.77, 4.3, 3.87, 3.82, 3.6, 2.79, 2.79, 2.53, 2.53, 2.21, 1.88, 1.88, 1.88, 2.21, 2.79, 5.6, 4.8, 4.4, 4.0, 4.34, 4.34, 4.92, 5.81, 6.71, 8.05, 9.39, 11.18, 12.49, 12.49, 11.18, 9.39, 7.6, 6.26, 4.82, 3.72, 3.48, 4.29, 4.54, 4.54, 4.54]}, {"header": {"dx": 0.06612293990616946, "dy": 0.0552356325346848, "nx": 98, "ny": 59, "la1": 35.046912555036876, "la2": 31.78801023549047, "lo1": -121.43107172385933, "lo2": -114.95102361305473, "refTime": "2026041617", "parameterCategory": 1, "parameterNumber": 3}, "data": [-13.36, -13.75, -13.36, -13.2, -12.27, -11.07, -9.86, -8.94, -8.08, -6.59, -5.69, -4.47, -4.16, -2.8, -1.7, -2.23, -3.58, -3.82, -4.46, -4.11, -3.0, -2.66, -0.89, -0.96, -0.88, -0.96, -1.83, -2.0, -3.16, -2.84, -2.8, -2.68, -2.68, -2.21, -2.23, -2.76, -2.8, -3.47, -4.29, -4.58, -3.79, -3.6, -3.7, -5.92, -7.36, -8.86, -11.28, -11.16, -6.47, -2.57, -0.89, -0.85, 0.0, 0.0, 1.69, 2.41, 3.19, 3.96, 4.1, 3.34, 3.34, 3.23, 3.19, 3.29, 2.51, 3.19, 3.19, 3.32, 3.23, 3.34, 3.11, 3.19, 2.51, 3.29, 3.29, 3.29, 2.51, 1.43, 0.0, 0.0, 0.0, -0.96, -0.98, -1.13, -1.4, -1.2, -0.99, 0.0, 0.0, -0.83, -0.84, -0.84, 0.0, 0.0, 1.84, 3.72, 4.29, 4.74, -13.36, -13.75, -13.75, -13.36, -12.82, -11.99, -10.96, -9.5, -8.65, -7.44, -6.28, -6.01, -4.42, -3.9, -2.49, -1.7, -2.98, -4.92, -5.09, -3.93, -4.02, -3.2, -2.66, -1.32, -0.0, -0.0, -0.88, -2.0, -3.16, -3.16, -3.35, -2.97, -3.13, -2.8, -2.23, -2.76, -3.47, -4.16, -4.16, -4.42, -5.53, -5.98, -7.51, -10.34, -12.42, -13.71, -12.85, -7.93, -1.84, 0.0, 0.0, 0.0, 0.0, 0.73, 1.47, 3.25, 3.19, 3.96, 4.1, 3.14, 3.34, 3.23, 3.19, 3.19, 3.07, 3.19, 3.32, 3.23, 3.14, 3.25, 3.14, 2.37, 2.44, 2.51, 2.51, 2.44, 2.53, 1.43, 0.0, 0.0, 0.0, -0.96, -0.98, -1.13, -1.4, -1.2, -0.99, 0.0, 0.0, -0.83, -0.84, -0.84, 0.0, 0.0, 1.84, 3.72, 4.29, 4.74, -13.36, -13.75, -13.75, -13.36, -12.82, -12.54, -11.34, -10.04, -9.21, -8.0, -6.87, -5.65, -5.53, -4.42, -3.11, -2.6, -2.76, -4.4, -4.92, -4.84, -3.79, -4.02, -3.91, -2.82, -1.32, -0.96, -0.88, -0.98, -2.84, -3.58, -3.93, -4.0, -3.9, -4.47, -2.84, -3.0, -3.72, -5.24, -6.32, -6.64, -7.52, -9.8, -11.29, -12.13, -12.31, -11.25, -7.13, -0.84, 0.88, 0.96, 0.0, 0.89, 0.84, 1.67, 2.83, 3.39, 3.91, 4.1, 4.0, 3.25, 3.34, 3.23, 3.32, 3.19, 3.91, 4.06, 3.96, 3.87, 4.0, 3.91, 3.17, 2.31, 1.64, 1.7, 1.7, 0.8, 1.6, 1.63, 0.0, 0.0, 0.0, -1.05, -2.0, -1.98, -1.9, -2.0, -1.9, -1.8, -1.84, -2.67, -1.75, -1.73, 0.0, 0.0, 1.84, 2.6, 3.47, 3.63, -13.36, -13.36, -13.75, -13.75, -13.36, -12.7, -11.62, -10.41, -9.76, -8.55, -7.44, -6.79, -6.32, -4.95, -4.29, -3.72, -4.29, -3.91, -4.57, -4.34, -3.93, -3.22, -3.2, -3.4, -3.4, -2.66, -0.88, -2.23, -2.98, -3.9, -4.98, -6.02, -6.02, -6.26, -5.21, -5.69, -6.32, -7.59, -9.4, -9.62, -10.51, -10.54, -10.05, -8.06, -6.4, -4.0, -0.83, 0.85, 0.82, 1.68, 1.47, 2.47, 2.59, 3.25, 3.39, 3.42, 3.32, 4.1, 4.0, 3.14, 3.23, 4.21, 4.06, 4.06, 4.75, 4.93, 4.81, 4.46, 5.02, 4.95, 4.91, 3.25, 1.64, 0.73, 0.0, 0.0, 0.0, 0.82, 0.0, 0.0, -0.82, -0.88, -2.0, -3.35, -3.39, -2.21, -1.98, -2.76, -3.33, -2.67, -1.63, -0.96, 0.0, 0.96, 2.2, 2.53, 2.76, 2.76, -13.62, -13.36, -13.75, -13.75, -13.36, -13.09, -12.16, -11.34, -10.3, -9.1, -8.0, -7.44, -6.64, -5.69, -4.58, -5.06, -5.06, -4.58, -4.98, -4.47, -4.84, -4.43, -3.0, -2.82, -3.33, -3.68, -3.22, -3.48, -4.24, -4.02, -5.36, -6.71, -7.55, -8.05, -9.03, -8.93, -8.93, -7.9, -9.66, -10.63, -9.89, -7.38, -4.93, -3.23, -2.39, -1.61, -0.78, 0.0, 0.83, 1.65, 1.6, 2.37, 2.44, 3.19, 3.32, 3.23, 3.23, 3.34, 4.0, 3.14, 3.23, 4.06, 4.87, 5.06, 5.6, 4.81, 4.81, 5.67, 6.4, 6.47, 6.35, 5.62, 4.39, 3.29, 0.85, 0.0, 0.0, 0.0, 0.0, 0.0, -1.7, -1.99, -3.16, -4.0, -3.9, -3.35, -2.76, -2.64, -2.64, -1.84, 0.0, 0.0, 1.13, 1.98, 2.23, 2.0, 1.83, 2.2, -13.62, -13.62, -13.75, -13.75, -13.36, -13.23, -12.7, -11.88, -10.83, -9.38, -8.55, -8.0, -7.02, -5.53, -4.42, -5.06, -5.37, -5.84, -5.58, -5.26, -4.98, -4.89, -5.06, -4.02, -4.43, -4.43, -5.6, -6.07, -6.07, -6.26, -5.73, -6.02, -6.57, -7.76, -7.6, -7.35, -6.6, -4.58, -6.11, -8.8, -8.42, -6.5, -4.13, -3.23, -2.47, -2.39, -1.65, -0.83, 0.0, 0.0, 0.83, 1.65, 1.6, 1.64, 2.37, 2.45, 2.45, 2.45, 3.25, 3.25, 3.11, 4.17, 4.87, 5.6, 5.8, 5.67, 5.67, 5.6, 6.43, 7.01, 7.11, 7.11, 7.23, 6.31, 4.06, 1.69, 0.0, 0.0, 0.0, 0.0, -1.83, -2.95, -3.93, -4.98, -5.09, -5.2, -4.29, -2.51, -0.89, 0.0, 2.23, 2.98, 2.8, 2.8, 2.21, 0.98, 0.96, 2.0, -13.62, -13.62, -13.62, -13.62, -13.62, -13.62, -13.09, -12.42, -10.96, -10.3, -9.1, -8.27, -7.35, -5.59, -4.71, -4.42, -4.95, -5.37, -5.49, -5.21, -4.38, -4.34, -3.93, -4.29, -4.84, -5.51, -6.07, -7.01, -7.45, -6.17, -6.71, -5.51, -5.15, -5.1, -5.3, -4.43, -4.29, -2.0, -2.53, -5.36, -8.48, -7.56, -6.5, -4.9, -2.45, -1.63, -0.82, -0.86, -0.82, 0.0, 0.0, 0.0, 0.8, 0.8, 0.8, 1.54, 1.6, 1.6, 1.55, 2.39, 3.32, 4.01, 4.87, 4.75, 5.6, 6.65, 6.31, 5.72, 5.06, 4.81, 5.55, 5.67, 6.2, 5.73, 4.87, 3.96, 2.41, 1.6, 0.85, 0.0, -1.83, -3.93, -4.6, -5.51, -6.16, -6.4, -5.37, -2.51, 0.0, 2.0, 3.47, 3.47, 3.39, 2.8, 0.99, 1.08, 1.08, 2.84, -13.62, -13.62, -13.62, -13.62, -13.62, -13.62, -13.09, -12.95, -11.5, -10.68, -9.63, -8.82, -7.76, -6.64, -6.01, -4.46, -4.71, -5.1, -5.69, -5.37, -3.22, -1.49, 0.0, 0.0, 0.0, -2.53, -4.92, -6.07, -7.06, -7.06, -7.6, -8.05, -8.06, -6.32, -4.03, -3.47, -2.0, 0.0, 3.58, -0.0, -4.92, -6.08, -5.21, -3.87, -1.33, 0.0, 0.0, 0.0, 0.0, 0.0, 0.0, 0.0, 0.85, 0.82, 0.82, 0.8, 0.83, 0.8, 0.8, 1.6, 2.44, 2.41, 3.29, 5.0, 5.63, 6.56, 5.48, 4.06, 3.29, 3.19, 3.23, 3.23, 2.45, 2.39, 2.39, 2.87, 4.1, 3.19, 1.63, 0.0, -1.45, -3.16, -4.22, -5.34, -6.0, -5.46, -3.64, -1.72, 0.82, 2.76, 3.6, 3.47, 3.39, 1.98, 0.98, 0.88, 1.8, 3.39, -13.62, -13.62, -13.62, -13.62, -13.62, -13.62, -13.23, -12.7, -12.03, -11.22, -10.16, -9.48, -9.86, -8.82, -7.06, -6.64, -6.64, -6.32, -6.01, -5.69, -4.29, -1.52, 0.0, 1.83, 2.2, 1.55, 0.0, -4.47, -7.01, -7.01, -7.6, -7.6, -6.0, -3.22, -1.7, -0.96, 0.0, 4.92, 5.81, 4.92, 4.02, 0.0, -1.52, -1.4, 0.0, 0.0, 0.0, 1.28, 1.68, 1.68, 1.22, 1.68, 1.69, 1.63, 1.7, 0.8, 0.77, 0.0, 0.0, 0.83, 0.82, 2.39, 3.32, 5.76, 5.9, 5.86, 4.81, 3.11, 1.63, 0.82, 0.83, 0.75, 0.0, 0.0, 0.0, 0.0, 0.77, 1.64, 1.6, 0.74, 0.0, -3.16, -4.15, -4.22, -3.84, -3.07, -1.55, 0.0, 1.47, 2.4, 3.16, 2.53, 2.53, 1.8, 0.96, 0.88, 1.98, 3.58, -13.62, -13.62, -13.62, -13.62, -13.62, -13.62, -13.62, -13.09, -12.42, -11.75, -11.08, -10.16, -8.55, -8.27, -8.82, -8.18, -8.18, -8.18, -8.54, -7.6, -5.72, -2.98, 0.0, 2.0, 3.48, 3.48, 4.0, 0.0, -4.02, -4.92, -4.02, 0.0, 3.58, 3.79, 3.22, 1.52, 2.98, 5.29, 6.71, 6.07, 4.34, 3.35, 0.98, 0.0, 0.0, 0.0, 0.0, 0.81, 2.39, 3.25, 3.25, 3.39, 2.41, 1.7, 1.58, 0.77, 0.0, 0.0, 0.0, 0.0, 0.85, 4.26, 7.21, 6.64, 6.42, 5.0, 3.96, 2.93, 0.71, 0.0, -0.83, -1.41, -2.18, -2.1, -1.44, -2.06, -1.58, -0.79, 0.0, 0.0, 0.74, -0.79, -3.13, -2.54, -0.85, 0.0, 0.0, 1.41, 2.2, 2.4, 2.53, 1.66, 0.98, 0.0, 0.0, 0.0, 2.53, 4.02, -13.62, -13.62, -13.62, -13.62, -13.62, -13.62, -13.62, -13.23, -12.95, -12.03, -11.22, -10.68, -9.5, -8.38, -8.73, -8.06, -8.43, -6.03, -5.75, -5.08, -5.6, -2.8, 2.68, 3.58, 4.02, 4.47, 4.92, 4.92, 4.4, 3.16, 4.47, 4.47, 5.36, 4.8, 3.93, 4.11, 5.6, 7.01, 5.51, 4.6, 3.93, 3.35, 2.53, 2.0, 0.0, 0.0, 0.0, 0.0, 0.85, 2.57, 3.36, 3.16, 3.29, 2.51, 1.58, 0.77, 0.0, -0.83, -1.63, 0.0, 4.58, 8.0, 8.63, 8.42, 7.59, 6.57, 4.87, 3.19, 0.0, -2.51, -4.06, -5.1, -4.48, -4.32, -3.53, -2.95, -2.89, -2.47, -1.75, -0.81, 0.0, 0.0, -2.0, -2.0, 0.0, 0.0, 0.85, 1.6, 1.8, 1.49, 1.66, 0.88, 0.0, 0.0, 0.0, 0.0, 2.53, 4.02, -13.62, -13.62, -13.62, -13.62, -13.62, -13.62, -13.62, -13.23, -12.95, -12.42, -11.75, -11.22, -10.41, -9.08, -7.3, -6.34, -5.37, -5.32, -5.01, -4.84, -2.79, 0.0, 1.34, 4.02, 4.24, 4.24, 4.47, 2.24, 4.47, 5.09, 5.51, 4.82, 4.77, 3.6, 4.0, 4.0, 4.57, 4.98, 4.57, 3.93, 4.0, 2.98, 2.8, 2.53, 0.0, 0.0, 0.0, 0.0, 0.0, 0.0, 0.89, 2.47, 2.49, 3.25, 2.49, 1.63, 1.63, 0.0, -1.84, 3.35, 9.35, 10.68, 10.43, 9.9, 10.0, 9.0, 8.01, 5.86, 1.62, -1.6, -4.28, -5.78, -5.78, -4.83, -4.0, -3.15, -2.54, -1.73, -1.45, -0.74, 0.0, 0.0, -0.96, -2.4, -1.34, 0.0, 0.0, 0.0, 0.85, 0.99, 0.76, 0.0, 0.0, 0.0, -0.96, 0.0, 2.98, 3.58, -13.62, -13.62, -13.62, -13.62, -13.62, -13.62, -13.62, -13.62, -13.09, -12.56, -12.03, -11.5, -10.7, -10.23, -8.56, -7.33, -5.7, -5.1, -5.08, -4.45, -3.2, -1.0, 0.0, 0.63, 1.2, 1.2, 0.8, 0.89, 1.34, 1.2, 3.35, 4.4, 4.0, 3.35, 3.82, 3.82, 2.98, 3.35, 3.6, 4.0, 3.9, 3.58, 3.58, 3.13, 3.58, 0.0, 0.0, 0.0, 0.0, 0.0, 0.0, 0.0, 0.76, 2.4, 2.69, 2.69, 4.0, 1.4, -1.4, 6.16, 11.15, 11.06, 10.89, 10.6, 10.89, 10.32, 9.56, 8.6, 6.64, 3.55, 0.0, -4.22, -4.98, -3.79, -2.76, -1.66, 0.0, 0.0, 0.0, 0.0, 0.0, 0.0, -0.72, -1.99, -2.24, -1.79, -1.79, 0.0, 0.0, 0.0, 0.0, 0.0, 0.0, -1.13, -0.98, 0.0, 2.97, 3.13, -13.62, -13.62, -13.62, -13.62, -13.62, -13.62, -13.62, -13.62, -13.23, -12.7, -12.42, -11.62, -11.07, -10.59, -9.77, -8.58, -6.96, -5.95, -5.09, -4.73, -4.1, -2.84, -1.2, 0.0, 0.32, 1.2, 1.2, 0.89, 0.45, 0.63, 1.26, 3.35, 4.66, 3.35, 2.98, 2.53, 2.21, 2.53, 3.39, 4.02, 4.02, 4.02, 4.92, 4.47, 4.02, 2.53, 0.99, 0.0, 0.0, 0.0, 0.0, 0.0, 1.52, 3.22, 4.11, 3.16, 2.8, 0.0, 0.0, 7.42, 10.45, 11.18, 11.18, 11.18, 9.8, 8.8, 7.89, 7.67, 8.0, 6.73, 4.43, 0.0, -2.53, -2.4, -1.79, -0.0, 1.58, 2.24, 1.79, 0.0, -1.0, -1.8, -1.55, -0.81, -1.98, -1.58, -2.24, -1.58, 0.0, 0.0, 0.0, 0.0, -0.95, -1.0, 0.0, 1.58, 2.68, 2.68, -13.62, -13.62, -13.62, -13.62, -13.62, -13.62, -13.62, -13.62, -13.23, -13.09, -12.7, -12.16, -11.62, -11.16, -10.36, -9.5, -8.23, -6.96, -6.34, -5.34, -4.45, -3.83, -2.82, -1.61, 0.0, 0.89, 1.34, 1.34, 0.89, 0.32, 0.0, 0.6, 3.16, 4.0, 3.6, 1.8, 1.8, 1.4, 3.58, 3.58, 3.9, 4.66, 4.0, 4.0, 4.24, 4.47, 4.02, 3.6, 3.16, 3.79, 2.98, 3.79, 5.09, 5.81, 5.36, 5.09, 1.7, 0.0, 3.09, 8.85, 8.33, 8.38, 8.38, 8.49, 8.49, 7.6, 7.01, 6.08, 5.69, 5.59, 4.16, 1.4, -0.99, -0.0, -0.0, 1.2, 2.4, 2.24, 1.79, 0.0, -1.79, -2.4, -1.2, 0.0, 0.0, -0.99, -1.79, -1.58, -0.95, 0.0, 0.0, -0.95, -1.34, -1.34, 0.0, 2.24, 2.4, 2.4, -13.62, -13.62, -13.62, -13.62, -13.62, -13.62, -13.62, -13.62, -13.62, -13.23, -13.09, -12.54, -11.72, -11.16, -10.36, -9.8, -9.21, -7.96, -6.97, -6.08, -5.72, -5.09, -4.05, -2.82, -1.16, 0.57, 1.86, 1.58, 1.26, 0.63, 0.0, 0.6, 0.6, 3.6, 4.0, 2.98, 1.13, 1.9, 3.58, 4.24, 4.0, 3.35, 3.16, 3.48, 3.48, 4.66, 4.66, 4.66, 4.92, 4.92, 4.92, 5.36, 5.36, 5.36, 4.92, 4.4, 2.98, 2.8, 6.08, 7.45, 5.29, 5.2, 6.07, 5.64, 6.26, 5.81, 4.0, 4.43, 4.56, 4.14, 1.72, 0.0, -1.13, -0.88, -0.0, 2.4, 3.39, 2.98, 1.0, 0.0, -1.26, -1.2, -0.0, -0.0, 0.0, 0.0, 0.0, -1.79, -1.79, 0.0, -0.0, -1.0, -1.26, 0.0, 0.0, 1.26, 2.4, 2.4, -13.62, -13.62, -13.62, -13.62, -13.62, -13.62, -13.62, -13.62, -13.62, -13.62, -12.82, -12.45, -11.72, -11.52, -10.36, -10.12, -9.5, -8.59, -7.96, -6.71, -6.34, -5.72, -4.69, -3.42, -1.7, 0.0, 0.51, 0.51, 0.54, 0.0, 0.0, 0.63, 0.89, 4.92, 4.47, 4.02, 3.58, 4.02, 4.0, 4.09, 4.66, 3.35, 3.48, 2.84, 3.48, 3.48, 4.09, 4.09, 4.66, 4.66, 5.09, 4.66, 4.92, 4.47, 4.47, 4.0, 3.48, 4.46, 4.66, 4.47, 4.47, 4.0, 4.4, 4.66, 4.92, 4.02, 5.09, 3.79, 1.41, 0.0, 0.0, -0.0, -0.96, -0.0, 1.9, 4.34, 5.58, 5.06, 3.63, 2.0, 2.4, 1.58, 0.98, 0.87, -0.0, 0.0, 0.0, -1.58, -1.34, -0.0, -0.99, -0.85, -1.58, -1.26, -0.0, -0.0, 1.9, 1.9, -13.62, -13.62, -13.62, -13.62, -13.62, -13.62, -13.62, -13.62, -13.36, -13.36, -13.2, -12.82, -12.27, -11.44, -10.94, -9.8, -9.82, -9.21, -8.58, -7.61, -6.33, -5.7, -5.08, -3.6, -2.29, -1.14, -0.54, 0.0, 0.0, 0.0, 0.63, 1.2, 1.7, 3.07, 3.44, 5.51, 5.2, 5.21, 4.84, 4.84, 4.84, 4.84, 4.46, 3.79, 3.48, 3.16, 3.16, 3.16, 3.48, 4.4, 4.66, 4.47, 4.47, 4.47, 4.47, 4.47, 4.0, 3.6, 3.58, 3.13, 3.58, 4.02, 3.6, 4.0, 4.47, 4.02, 3.35, 0.0, -3.2, -2.83, -1.84, 2.24, 2.24, 2.4, 4.0, 4.84, 5.77, 6.64, 5.89, 4.95, 4.29, 3.93, 3.9, 1.74, -0.0, -1.79, -2.8, -1.4, -1.9, -2.24, -0.99, -1.13, -1.9, -1.0, -0.0, -0.0, 1.0, 1.0, -13.62, -13.62, -13.62, -13.62, -13.62, -13.62, -14.01, -14.01, -13.36, -13.36, -13.2, -12.82, -12.27, -11.8, -11.23, -11.82, -9.8, -9.8, -8.58, -7.33, -6.56, -6.31, -5.7, -5.06, -3.6, -2.66, -1.84, -0.99, 0.0, -0.0, 0.6, 1.26, 1.9, 2.53, 3.09, 3.73, 4.07, 3.49, 4.43, 4.74, 4.54, 4.98, 4.84, 4.46, 3.48, 3.16, 3.16, 3.16, 4.0, 4.0, 4.24, 4.47, 4.92, 4.92, 4.92, 4.47, 4.02, 3.58, 3.13, 3.13, 3.13, 3.58, 4.02, 3.82, 4.02, 4.02, 3.39, 0.0, -0.84, 0.0, 2.42, 4.06, 4.1, 4.1, 3.29, 2.47, 1.67, 2.57, 4.07, 4.2, 3.91, 4.02, 4.0, 2.53, 1.2, 0.0, -2.68, -2.97, -2.98, -2.24, -1.2, -0.99, -1.4, -1.2, -0.0, -0.0, 1.2, 1.2, -13.87, -13.62, -13.62, -13.62, -13.62, -14.15, -14.15, -13.75, -13.36, -13.36, -13.2, -12.82, -12.37, -12.0, -11.52, -10.69, -9.8, -9.77, -10.18, -8.76, -8.18, -7.33, -6.98, -7.48, -5.89, -3.91, -3.35, -0.89, 0.0, -0.0, 0.6, 0.99, 1.24, 1.88, 2.23, 2.86, 2.86, 2.84, 2.84, 2.86, 3.48, 3.78, 3.35, 3.39, 2.49, 3.16, 3.16, 3.48, 3.48, 4.66, 4.66, 4.66, 4.92, 5.36, 4.92, 4.38, 4.02, 1.79, 1.79, 0.0, 3.13, 3.58, 4.02, 4.47, 4.47, 4.02, 3.82, 2.2, 1.84, 3.25, 4.98, 5.61, 4.85, 2.43, 0.0, -2.35, -3.96, -4.13, 0.0, 1.75, 1.7, 2.68, 3.35, 2.84, 2.53, -0.0, 0.0, -1.79, -2.6, -2.0, -1.79, -0.0, -0.0, -0.0, -0.0, -0.0, 1.2, 1.2, -13.87, -13.62, -13.62, -13.62, -13.62, -14.01, -14.01, -13.75, -13.75, -13.36, -13.36, -13.2, -12.93, -12.37, -11.87, -10.99, -10.4, -9.77, -9.66, -10.24, -9.48, -8.22, -7.93, -7.3, -6.04, -3.83, -1.9, -1.2, -0.89, 0.0, -0.0, 0.6, 0.71, 1.2, 1.61, 1.8, 2.22, 2.44, 2.44, 2.86, 3.48, 3.73, 4.0, 4.4, 3.87, 4.46, 3.48, 4.46, 4.46, 4.66, 4.66, 4.66, 5.09, 5.36, 5.36, 5.26, 4.34, 1.79, 0.0, 0.0, 0.0, 2.68, 3.58, 4.47, 4.02, 4.02, 3.82, 3.48, 4.16, 5.06, 6.56, 5.79, 3.24, 0.0, -3.2, -5.55, -8.44, -8.12, -5.06, -1.75, 0.0, 1.9, 2.8, 1.98, 1.98, 1.4, -0.0, -1.26, -1.79, -2.0, 0.0, 1.2, 1.98, 0.99, 0.85, -0.0, 1.2, 1.2, -13.87, -13.62, -13.62, -13.62, -13.62, -13.62, -14.01, -13.75, -13.75, -13.36, -13.36, -12.93, -12.93, -12.73, -12.09, -11.58, -10.72, -10.09, -10.06, -9.72, -8.5, -7.86, -8.45, -8.45, -7.27, -5.1, -2.84, -2.21, -1.86, -0.89, -0.0, -0.0, 0.57, 0.54, 1.16, 1.84, 1.8, 1.76, 2.22, 2.86, 3.49, 3.79, 4.65, 5.08, 4.9, 3.88, 4.11, 5.2, 5.2, 5.2, 5.09, 4.66, 5.09, 5.36, 5.36, 5.64, 4.98, 2.8, -2.68, -3.58, -1.79, 1.79, 3.13, 3.58, 3.58, 3.58, 3.39, 3.72, 4.54, 6.63, 7.59, 7.96, 4.07, 0.0, -5.82, -8.94, -10.81, -10.81, -8.93, -5.94, -2.6, 1.2, 3.58, 3.39, 2.23, 2.23, 1.13, -0.0, -0.0, -1.79, 0.0, 1.9, 2.21, 1.9, 1.0, 1.0, 2.8, 2.8, -13.48, -13.48, -13.62, -13.62, -13.62, -13.62, -14.01, -13.75, -13.75, -13.75, -13.75, -13.11, -12.93, -12.65, -12.45, -11.92, -11.33, -10.4, -10.36, -9.77, -8.56, -7.6, -8.15, -8.38, -8.15, -6.95, -5.1, -3.49, -2.79, -1.7, -0.89, -0.0, -0.0, -0.0, 0.65, 1.16, 1.13, 1.8, 2.48, 2.86, 3.49, 4.11, 4.71, 4.94, 5.21, 4.93, 5.36, 5.36, 6.23, 6.07, 5.64, 5.2, 5.09, 5.09, 5.36, 5.81, 6.2, 5.26, 0.0, -2.68, -2.24, 2.24, 3.58, 4.02, 4.02, 3.9, 3.82, 2.98, 3.72, 3.93, 4.74, 4.56, 1.08, -0.0, -3.6, -6.51, -9.34, -10.65, -10.15, -7.31, -3.47, 1.13, 4.34, 4.02, 4.34, 4.0, 3.16, 3.16, 1.27, -0.0, -0.0, 1.9, 1.9, 2.0, 2.0, 2.4, 2.54, 2.54, -13.23, -13.23, -13.62, -13.62, -13.62, -13.62, -14.01, -13.9, -13.75, -13.75, -13.48, -13.48, -13.3, -13.01, -12.45, -11.92, -11.33, -10.72, -10.36, -10.09, -9.48, -7.95, -7.3, -7.81, -8.08, -7.81, -6.92, -5.08, -3.79, -2.68, -1.79, -0.95, -0.6, -0.0, -0.0, 0.53, 1.16, 1.13, 1.8, 2.48, 2.86, 3.49, 4.12, 4.74, 5.01, 4.94, 5.93, 6.13, 6.64, 7.01, 7.01, 6.07, 5.64, 5.64, 5.2, 5.81, 6.26, 6.2, 5.51, 2.53, 0.0, 2.68, 4.02, 4.47, 4.47, 4.34, 4.0, 3.16, 2.53, 1.27, 1.08, -1.49, 0.0, -0.89, -0.0, -3.79, -7.15, -9.11, -9.2, -7.32, -3.22, 1.98, 3.47, 3.47, 4.47, 4.0, 4.0, 3.16, 1.27, -0.0, -0.0, -0.0, 0.8, 1.26, 2.0, 2.0, 2.54, 2.54, -13.23, -13.23, -13.62, -13.62, -13.62, -13.62, -13.75, -13.9, -13.75, -13.75, -13.48, -13.48, -13.3, -13.01, -12.8, -12.16, -11.92, -11.33, -10.4, -10.36, -9.8, -8.87, -7.93, -7.59, -8.08, -8.08, -7.55, -6.32, -5.06, -4.0, -2.4, -1.79, -1.2, -0.57, -0.0, -0.0, 0.53, 1.16, 1.6, 2.23, 2.22, 2.86, 3.49, 4.12, 4.74, 4.43, 4.37, 4.55, 4.55, 5.31, 5.51, 7.01, 6.14, 6.07, 5.64, 5.64, 6.14, 6.26, 7.01, 6.07, 5.09, 3.58, 4.47, 5.36, 4.92, 4.57, 3.93, 3.16, 2.0, 0.0, -0.89, -1.62, 0.0, -0.98, -1.13, -0.96, -2.68, -4.47, -6.58, -5.82, -2.41, 1.9, 2.97, 3.47, 4.02, 3.9, 3.82, 3.39, 2.8, -0.0, -0.0, -0.85, -0.0, -0.0, 1.26, 2.0, 2.4, 2.4, -13.23, -13.23, -13.62, -13.62, -13.62, -13.62, -13.62, -13.75, -13.75, -13.48, -13.48, -13.48, -13.3, -13.01, -13.01, -12.51, -11.92, -11.33, -10.99, -10.69, -10.4, -9.8, -8.56, -7.9, -7.81, -8.08, -8.08, -7.51, -6.28, -5.01, -3.72, -2.6, -1.79, -1.26, -0.57, -0.0, -0.0, 0.61, 1.33, 1.84, 2.23, 2.48, 2.2, 3.08, 3.84, 4.43, 4.37, 4.65, 5.08, 5.08, 5.81, 5.31, 7.21, 7.06, 6.58, 6.58, 6.07, 6.71, 6.71, 7.01, 6.0, 6.07, 4.92, 5.36, 5.29, 4.98, 4.29, 3.79, 0.96, 0.0, -1.84, -1.28, -0.83, 0.0, 0.0, 0.0, -1.8, -2.23, -3.58, -3.58, 0.0, 2.4, 2.68, 3.58, 4.02, 4.47, 4.02, 3.58, 3.58, 3.13, 3.39, -0.76, -0.99, -0.0, -0.0, 1.58, 2.0, 2.0, -13.23, -13.23, -13.23, -13.62, -13.62, -13.62, -13.62, -13.75, -13.75, -13.48, -13.48, -13.48, -13.48, -13.01, -13.01, -12.51, -12.16, -11.92, -11.33, -10.99, -10.4, -10.09, -9.48, -8.53, -8.19, -7.81, -8.08, -7.81, -7.51, -6.23, -4.65, -4.55, -3.39, -2.68, -1.79, -1.2, -0.0, -0.0, 0.65, 1.88, 2.21, 2.5, 1.88, 2.4, 3.04, 4.12, 4.71, 5.21, 5.08, 5.08, 5.08, 5.31, 5.31, 5.57, 6.94, 6.45, 6.23, 6.58, 6.26, 6.2, 7.01, 5.73, 7.15, 6.26, 6.14, 4.98, 4.54, 1.99, 0.96, 0.0, -1.73, -2.57, -1.63, 0.0, 1.6, 0.0, -2.84, -2.0, -1.13, -0.0, 1.27, 2.84, 2.98, 3.6, 3.74, 4.47, 4.92, 4.82, 4.92, 5.36, 4.92, 4.38, -0.0, -0.0, -0.0, -0.0, 1.79, 1.79, -13.23, -13.23, -13.23, -13.62, -13.62, -13.62, -13.62, -13.36, -13.75, -13.48, -13.48, -13.48, -13.21, -13.01, -13.01, -12.73, -12.51, -11.92, -11.58, -10.99, -10.72, -10.69, -9.77, -9.46, -8.82, -8.19, -8.15, -8.73, -8.15, -8.08, -6.87, -5.29, -4.27, -3.39, -2.68, -1.79, -0.95, -0.0, 0.57, 1.2, 2.21, 2.68, 2.91, 1.88, 1.76, 3.04, 3.84, 5.21, 5.08, 5.08, 5.08, 5.31, 5.31, 5.81, 5.81, 7.37, 6.64, 7.01, 6.71, 6.71, 6.26, 6.26, 6.26, 6.64, 6.02, 6.23, 3.91, 0.96, 0.0, 0.0, -0.89, -1.68, -2.59, -2.59, -1.63, -1.64, -3.33, -3.16, -2.0, -0.99, -0.0, 1.61, 2.21, 3.6, 3.6, 4.38, 4.92, 5.81, 5.73, 6.2, 5.81, 5.36, 3.35, 1.74, 1.0, -0.0, 1.34, 1.34, -13.09, -13.09, -13.23, -13.23, -13.62, -13.62, -13.36, -13.36, -13.75, -13.75, -13.85, -13.48, -13.21, -13.01, -13.01, -12.73, -12.51, -11.92, -11.58, -11.33, -10.99, -10.69, -10.36, -10.06, -9.13, -9.13, -8.82, -8.45, -8.73, -8.15, -7.51, -6.23, -4.94, -3.88, -3.39, -2.17, -1.34, -0.63, -0.0, 0.71, 1.61, 2.68, 3.39, 4.82, 4.29, 2.86, 3.49, 4.11, 4.37, 4.55, 4.69, 5.31, 5.31, 5.4, 5.81, 5.4, 7.63, 7.94, 7.1, 7.1, 6.71, 6.26, 6.71, 6.64, 6.45, 6.21, 5.06, 1.84, -1.84, -2.64, -1.75, -1.62, -1.63, -4.13, -5.72, -5.8, -3.63, -3.58, -2.68, -3.35, -2.53, 0.54, 1.88, 2.5, 3.6, 4.15, 4.8, 5.6, 5.2, 5.73, 5.81, 5.29, 4.66, 3.58, 2.68, 2.24, 2.24, 2.24, -13.09, -13.09, -13.09, -13.23, -13.62, -13.62, -13.36, -13.36, -13.75, -13.75, -13.48, -13.85, -13.21, -13.01, -13.01, -12.73, -12.51, -12.16, -11.92, -11.33, -10.99, -10.69, -10.69, -10.36, -10.36, -10.06, -9.42, -8.5, -8.45, -8.15, -7.55, -6.87, -5.65, -4.65, -3.88, -3.07, -2.17, -1.34, -0.0, 0.6, 1.24, 2.5, 3.6, 4.3, 4.34, 4.98, 4.74, 4.07, 4.0, 4.0, 4.55, 5.08, 5.31, 5.4, 5.4, 5.4, 5.4, 5.99, 7.42, 7.1, 6.65, 6.26, 6.26, 6.2, 6.45, 6.16, 6.6, 4.56, 0.0, -3.72, -2.67, -0.81, 0.0, -0.83, -4.1, -5.86, -4.21, -2.69, -2.53, -3.82, -4.0, -0.99, -0.0, 1.61, 2.21, 3.58, 4.19, 4.19, 3.84, 4.15, 4.47, 5.36, 4.66, 4.98, 4.15, 3.6, 3.6, 3.6, -13.09, -13.09, -13.09, -13.09, -13.62, -13.36, -13.36, -13.36, -13.75, -13.75, -13.48, -13.85, -13.58, -13.01, -13.01, -12.73, -12.51, -12.51, -11.92, -11.58, -11.33, -11.28, -10.94, -10.69, -10.36, -10.06, -9.72, -9.08, -8.19, -8.19, -8.15, -7.23, -6.62, -5.35, -4.65, -3.43, -2.68, -2.12, -0.89, -0.0, 1.26, 1.9, 2.68, 3.72, 4.27, 5.21, 4.54, 3.43, 3.43, 4.0, 4.55, 5.31, 5.4, 5.4, 5.57, 5.57, 5.99, 5.99, 6.04, 7.55, 6.71, 6.26, 6.26, 6.17, 5.94, 5.51, 6.02, 6.08, 3.2, 0.0, 0.0, 0.95, 2.49, 3.25, 0.0, -4.1, -5.8, -4.06, -1.68, -2.0, -3.47, -3.6, -1.26, -0.0, 0.65, 1.61, 2.21, 3.22, 2.98, 3.2, 3.95, 4.47, 5.09, 4.84, 4.46, 4.19, 4.19, 4.19, -13.09, -13.09, -13.09, -13.09, -13.09, -13.36, -13.36, -13.36, -13.36, -13.75, -13.48, -13.48, -13.85, -13.01, -13.01, -12.73, -12.51, -12.51, -12.16, -11.92, -11.58, -11.28, -10.94, -10.69, -10.36, -10.36, -10.06, -9.42, -9.56, -8.15, -8.19, -7.86, -6.95, -6.28, -5.01, -4.11, -3.43, -2.5, -1.6, 0.0, 0.63, 1.26, 2.15, 2.79, 3.14, 2.84, 3.14, 2.79, 3.14, 4.0, 4.55, 5.31, 5.4, 5.99, 5.99, 5.99, 6.14, 5.99, 5.99, 6.16, 7.15, 6.26, 5.81, 5.29, 5.73, 5.73, 4.98, 6.0, 4.29, 2.82, 3.91, 3.72, 2.69, 3.73, 2.43, -0.83, -4.5, -5.1, -3.32, -0.78, -2.24, -3.2, -3.47, -1.2, -0.8, -0.0, 0.8, 0.89, 3.13, 2.68, 3.13, 4.02, 4.57, 4.84, 4.46, 4.46, 4.84, 4.84, -13.09, -13.09, -13.09, -13.09, -13.09, -13.2, -13.2, -13.36, -13.36, -13.75, -13.48, -13.48, -13.85, -13.58, -13.01, -12.73, -12.73, -12.51, -12.51, -11.92, -11.58, -11.28, -11.28, -10.69, -10.36, -10.36, -10.3, -9.72, -8.78, -9.62, -8.38, -8.49, -7.55, -6.92, -5.69, -4.74, -4.07, -2.84, -2.15, -0.95, 0.0, 1.2, 1.7, 2.4, 2.5, 2.5, 2.5, 2.8, 3.07, 3.88, 4.8, 5.31, 5.57, 6.14, 6.16, 6.16, 6.23, 6.14, 6.14, 6.16, 5.78, 5.81, 6.26, 5.36, 5.73, 5.73, 5.26, 4.98, 4.74, 4.56, 5.37, 3.97, 0.89, 0.0, 0.0, 0.0, 0.0, -1.4, -0.96, 0.0, 0.0, -1.58, -2.54, -2.97, -1.34, -0.89, -0.45, 0.0, 1.27, 2.53, 3.13, 3.13, 3.47, 4.22, 4.84, 5.15, 4.81, 4.81, -12.7, -12.7, -13.09, -13.09, -13.09, -12.82, -13.2, -13.2, -13.36, -13.75, -13.48, -13.48, -13.48, -13.58, -12.73, -12.73, -12.73, -12.51, -12.51, -11.92, -11.58, -10.99, -11.28, -10.94, -10.69, -10.36, -10.65, -10.06, -9.72, -8.5, -8.15, -8.38, -8.15, -7.55, -6.32, -5.65, -4.43, -3.48, -2.79, -1.58, 0.0, 0.45, 1.34, 1.79, 2.12, 2.17, 2.4, 2.6, 3.07, 4.3, 5.09, 5.51, 5.7, 5.7, 5.78, 6.23, 6.23, 6.26, 6.23, 6.14, 8.05, 7.15, 6.26, 6.26, 5.81, 5.73, 5.51, 4.98, 5.58, 5.37, 5.37, 4.37, 0.0, -2.51, -2.5, 0.0, 1.58, 2.54, 1.63, 0.79, 0.74, 0.0, -0.81, -1.66, -2.41, -0.95, -0.63, -0.57, 0.0, 1.08, 2.21, 2.68, 2.68, 3.39, 3.83, 4.81, 5.46, 5.46, -12.7, -12.7, -13.09, -13.09, -12.82, -12.82, -12.82, -13.2, -13.2, -13.36, -13.48, -13.48, -13.85, -13.58, -13.58, -13.09, -12.73, -12.51, -12.16, -11.92, -11.58, -11.58, -11.28, -11.28, -10.94, -10.36, -10.65, -10.3, -10.06, -9.13, -8.78, -8.15, -8.15, -8.15, -6.95, -6.01, -5.06, -4.11, -2.86, -2.21, -0.71, 0.0, 1.2, 1.2, 1.34, 1.79, 2.24, 2.68, 3.58, 4.44, 5.24, 5.24, 5.24, 5.78, 5.78, 5.78, 6.26, 6.26, 6.26, 6.23, 6.26, 7.6, 6.58, 6.71, 6.26, 6.26, 5.51, 5.51, 4.98, 4.89, 4.74, 5.59, 2.6, 0.0, -1.62, 0.0, 2.37, 3.28, 2.45, 0.82, 0.0, -0.76, -0.83, -1.6, -1.55, -1.0, -1.0, -1.7, 0.0, 0.0, 1.13, 1.4, 1.9, 2.4, 2.98, 3.58, 4.81, 4.81, -12.95, -12.95, -12.7, -13.09, -12.82, -12.82, -12.82, -13.2, -13.2, -13.36, -13.48, -13.48, -13.85, -13.58, -13.58, -13.09, -12.51, -12.51, -12.16, -12.16, -11.92, -11.58, -11.33, -11.28, -10.94, -10.36, -10.65, -10.3, -9.77, -9.72, -8.53, -8.19, -7.86, -7.86, -7.27, -6.34, -5.69, -4.45, -3.49, -2.86, -1.16, 0.0, 0.71, 0.57, 0.6, 1.2, 1.79, 2.68, 4.02, 4.92, 5.36, 5.36, 5.36, 5.36, 5.36, 5.81, 5.81, 6.26, 6.26, 6.26, 6.26, 6.23, 7.06, 6.26, 5.81, 5.81, 5.09, 5.51, 5.51, 5.2, 6.08, 4.87, 3.92, 2.45, 0.0, 0.0, 0.0, 0.79, 0.0, 0.0, -1.54, -1.55, -2.47, -2.29, -1.6, -1.7, -1.7, -0.88, 0.0, 1.08, 1.08, 0.98, 0.99, 1.4, 2.21, 2.53, 4.19, 4.19, -12.95, -12.95, -12.7, -13.09, -12.82, -12.82, -12.82, -13.2, -13.2, -13.36, -13.48, -13.48, -13.48, -13.58, -13.38, -13.09, -12.51, -12.16, -12.16, -12.16, -11.92, -11.58, -11.58, -11.28, -10.94, -10.36, -10.36, -10.36, -10.09, -9.77, -9.46, -8.82, -8.19, -7.86, -7.27, -6.95, -5.71, -4.75, -3.84, -2.84, -1.8, -0.61, 0.61, 0.98, 0.71, 1.26, 1.7, 3.13, 4.47, 4.92, 5.36, 4.92, 4.92, 5.36, 5.36, 5.36, 5.36, 5.81, 6.23, 6.26, 6.26, 6.26, 7.5, 6.64, 6.26, 6.26, 5.29, 5.51, 5.51, 5.2, 4.54, 4.74, 5.1, 4.74, 1.57, -0.8, -1.64, -2.45, -2.41, -2.22, -2.17, -2.47, -3.35, -2.53, -2.53, -1.55, -0.88, 0.0, 0.96, 0.96, 0.96, 0.96, 0.88, 0.98, 2.23, 1.98, 2.41, 3.16, -12.95, -12.95, -12.7, -12.7, -12.82, -12.82, -12.82, -13.2, -13.2, -12.93, -13.48, -13.48, -13.48, -13.21, -13.38, -12.73, -12.73, -12.51, -12.16, -12.16, -12.16, -11.92, -11.58, -11.28, -10.69, -10.36, -10.36, -10.36, -10.36, -10.09, -9.77, -8.85, -8.22, -7.59, -6.97, -6.67, -5.72, -5.1, -4.1, -3.47, -2.4, -1.11, 0.0, 0.96, 1.13, 1.2, 1.58, 3.53, 4.44, 4.89, 4.89, 4.89, 4.89, 4.89, 4.92, 4.92, 4.92, 5.36, 6.23, 6.23, 6.71, 6.71, 7.94, 6.2, 5.73, 6.26, 6.71, 6.2, 5.94, 5.6, 4.98, 4.74, 4.0, 4.21, 4.07, 1.65, -0.85, -4.17, -4.24, -3.68, -2.97, -3.33, -2.68, -2.53, -0.99, 0.0, 0.0, 0.96, 0.88, 0.96, 0.96, 0.96, 0.88, 0.96, 2.2, 1.8, 2.41, 2.41, -12.95, -12.95, -12.7, -12.7, -12.82, -12.82, -12.82, -12.82, -13.2, -12.93, -12.93, -13.3, -13.3, -13.01, -13.01, -13.09, -12.73, -12.73, -12.51, -12.16, -12.16, -11.58, -11.63, -11.28, -10.69, -10.69, -10.36, -10.36, -10.36, -10.09, -9.77, -9.46, -8.24, -7.6, -6.97, -6.35, -5.72, -5.36, -4.46, -3.42, -2.32, -1.19, 0.0, 0.57, 1.84, 1.8, 2.53, 3.7, 4.77, 4.77, 4.77, 4.77, 4.77, 4.77, 4.77, 4.88, 4.92, 5.78, 6.23, 6.16, 6.68, 6.68, 5.78, 7.5, 6.71, 6.71, 6.26, 6.2, 5.94, 5.6, 4.54, 3.79, 2.82, 3.77, 6.85, 6.65, 2.49, -1.75, -5.1, -4.56, -3.33, -2.53, -0.99, 0.0, 0.87, 1.55, 1.6, 0.95, 0.83, 0.83, 0.89, 0.89, 0.89, 0.88, 1.83, 2.2, 1.8, 2.41, -12.95, -12.95, -12.7, -12.7, -12.82, -12.82, -12.82, -12.82, -13.2, -12.93, -12.93, -12.93, -13.3, -13.01, -13.38, -13.38, -13.09, -12.73, -12.16, -12.45, -11.87, -11.87, -11.28, -11.28, -10.94, -10.69, -10.69, -10.69, -10.09, -9.77, -9.17, -9.13, -8.53, -7.93, -7.3, -6.69, -6.0, -5.09, -4.71, -3.4, -2.77, -1.67, -0.61, 0.0, 0.63, 1.84, 2.86, 4.27, 4.4, 4.4, 4.6, 4.6, 4.6, 4.6, 4.6, 4.77, 4.89, 5.34, 6.23, 6.16, 6.6, 6.68, 8.49, 7.6, 7.5, 7.01, 5.81, 6.07, 5.51, 5.6, 4.54, 4.11, 3.0, 2.82, 5.1, 7.44, 5.86, 1.84, -2.8, -3.13, -1.2, 0.0, 1.83, 3.11, 2.9, 2.99, 1.58, 0.8, 0.84, 0.0, 0.0, 0.0, 0.89, 1.7, 2.2, 2.0, 2.23, 2.23, -12.42, -12.42, -12.7, -12.7, -12.82, -12.82, -12.82, -12.82, -12.56, -12.93, -12.93, -12.93, -13.3, -13.01, -13.38, -13.38, -13.09, -12.73, -12.51, -11.87, -11.87, -11.87, -11.28, -11.28, -11.28, -10.72, -10.4, -10.36, -9.77, -9.17, -9.17, -8.56, -8.56, -7.95, -7.61, -6.98, -6.08, -5.09, -4.45, -3.6, -2.75, -1.76, -1.05, 0.0, 0.0, 1.08, 2.86, 3.48, 4.0, 4.0, 4.27, 4.27, 4.27, 4.4, 4.4, 5.02, 5.24, 5.33, 5.7, 6.16, 6.16, 6.68, 6.71, 8.05, 7.5, 7.01, 6.07, 5.64, 5.4, 4.98, 4.98, 4.29, 3.47, 2.99, 2.82, 2.7, 4.33, 4.33, 2.83, 2.76, 3.22, 4.46, 4.96, 4.5, 3.69, 2.49, 1.68, 0.0, 0.0, 0.0, 0.0, 0.89, 1.84, 1.99, 2.0, 1.27, 1.27, 1.27, -12.42, -12.42, -12.54, -12.54, -12.54, -12.82, -12.82, -12.82, -12.56, -12.93, -12.93, -12.93, -13.3, -13.01, -13.38, -13.38, -13.01, -13.01, -12.45, -11.87, -11.52, -11.52, -11.28, -10.99, -10.99, -10.72, -10.69, -10.09, -9.48, -9.17, -8.87, -8.87, -8.87, -8.56, -7.95, -6.98, -6.35, -5.08, -4.69, -3.56, -2.73, -2.26, -1.12, -0.53, 0.0, 0.61, 1.73, 2.86, 3.48, 3.48, 4.0, 4.0, 4.27, 4.8, 4.8, 4.8, 5.09, 5.24, 5.7, 5.57, 5.99, 6.23, 6.71, 8.49, 7.94, 6.64, 6.0, 6.07, 4.98, 4.98, 4.6, 4.6, 3.79, 2.99, 1.98, 1.84, 3.39, 4.76, 5.51, 6.4, 7.13, 7.34, 6.48, 5.2, 2.88, 1.5, 0.0, 0.0, -0.84, 0.0, 0.0, 1.99, 2.76, 2.0, 1.27, 0.0, 0.0, 0.0, -12.42, -12.42, -12.16, -12.54, -12.54, -12.27, -12.65, -12.65, -12.56, -12.93, -12.93, -12.93, -13.3, -13.01, -13.01, -13.01, -13.01, -12.45, -12.45, -11.87, -11.52, -11.52, -11.28, -10.99, -10.99, -10.4, -10.09, -9.48, -9.17, -8.87, -8.87, -8.87, -8.58, -8.56, -7.61, -6.98, -5.98, -5.08, -4.44, -3.8, -2.89, -2.23, -1.63, -0.57, 0.0, 0.59, 1.19, 2.2, 2.86, 3.48, 3.48, 4.0, 4.0, 4.55, 4.55, 4.93, 4.8, 5.09, 5.09, 5.51, 5.57, 5.7, 6.23, 6.68, 8.41, 6.64, 6.0, 5.6, 5.2, 4.98, 6.07, 4.98, 4.11, 3.91, 2.8, 2.82, 2.7, 3.96, 5.62, 7.32, 8.99, 8.59, 6.32, 3.73, 1.45, 0.0, -0.76, -0.84, -0.83, 0.0, 1.55, 2.23, 2.48, 1.27, 0.0, 0.0, 0.0, 0.0, -12.42, -12.42, -12.16, -12.54, -12.54, -12.27, -12.65, -12.65, -12.37, -12.56, -12.93, -12.93, -12.93, -13.01, -13.01, -12.65, -12.45, -12.45, -11.87, -11.87, -11.52, -11.28, -11.28, -11.28, -10.69, -10.09, -9.77, -9.48, -9.48, -9.19, -9.19, -9.19, -8.58, -8.24, -7.61, -6.7, -5.7, -5.06, -4.42, -3.97, -3.35, -2.89, -1.61, -1.1, 0.0, 0.0, 1.16, 2.18, 2.84, 3.12, 3.49, 4.07, 4.07, 4.37, 4.55, 4.65, 4.55, 4.8, 4.9, 4.9, 4.9, 5.57, 6.23, 6.68, 6.6, 7.06, 6.23, 5.51, 5.51, 5.51, 4.98, 4.6, 4.11, 3.91, 3.72, 2.82, 2.69, 3.29, 4.93, 6.65, 8.06, 8.03, 5.79, 2.93, 1.43, 0.0, -0.79, -0.78, 0.0, 1.8, 2.53, 1.4, 1.4, 0.0, 0.0, -2.21, -2.21, -2.21, -12.42, -12.42, -12.16, -12.16, -12.27, -12.27, -12.27, -12.65, -12.37, -12.37, -12.37, -12.93, -12.93, -12.65, -12.45, -12.45, -12.45, -12.09, -11.87, -11.87, -11.28, -11.28, -10.94, -10.69, -10.36, -10.09, -9.48, -9.48, -9.19, -9.5, -9.19, -8.87, -8.56, -7.61, -6.98, -6.34, -5.95, -5.29, -4.63, -4.16, -3.32, -2.86, -2.23, -1.18, -0.56, 0.0, 1.14, 1.84, 2.18, 2.84, 3.49, 3.49, 4.07, 4.07, 4.07, 4.07, 4.29, 4.55, 4.55, 4.55, 4.8, 5.09, 5.7, 6.61, 6.61, 7.63, 7.01, 6.58, 6.0, 4.98, 4.98, 4.29, 3.79, 3.63, 3.72, 3.55, 3.27, 3.36, 5.0, 5.86, 6.43, 5.79, 4.91, 2.82, 0.72, 0.0, 0.0, 0.0, 0.0, 2.24, 2.24, 1.9, 0.0, 0.0, -1.79, -2.68, -2.68, -2.68, -12.42, -12.42, -12.16, -12.16, -12.16, -12.27, -12.27, -12.27, -12.37, -12.37, -12.37, -12.37, -12.37, -12.37, -12.09, -12.09, -12.09, -11.87, -11.87, -11.87, -11.28, -10.69, -10.36, -10.09, -9.77, -9.77, -9.8, -9.8, -9.8, -9.5, -9.19, -8.58, -8.24, -7.61, -6.98, -6.34, -5.69, -5.69, -5.04, -4.4, -3.49, -3.01, -2.21, -1.16, -0.59, 0.0, 1.12, 1.67, 2.36, 2.84, 2.84, 3.49, 3.49, 4.07, 3.79, 3.79, 4.07, 4.55, 4.29, 4.07, 4.37, 4.8, 5.67, 6.16, 6.61, 8.41, 7.63, 7.21, 6.64, 4.98, 3.93, 3.93, 3.79, 3.63, 4.19, 4.58, 4.26, 4.56, 5.76, 6.0, 5.2, 4.81, 5.55, 3.6, 0.0, 0.0, 0.0, 0.0, -0.0, -0.0, 0.0, 2.24, 0.0, 0.0, -1.58, -2.8, -2.8, -2.8, -12.03, -12.03, -12.16, -12.16, -12.16, -11.72, -12.09, -12.27, -12.0, -12.0, -12.37, -12.37, -12.37, -12.37, -12.09, -12.09, -11.87, -11.87, -11.87, -11.28, -10.94, -10.65, -10.06, -9.77, -9.77, -10.09, -10.12, -10.12, -9.82, -9.5, -8.87, -8.24, -7.61, -7.26, -6.98, -6.33, -5.92, -5.69, -5.26, -4.6, -3.97, -2.83, -2.33, -1.07, -0.55, 0.0, 0.61, 1.12, 1.67, 2.36, 2.18, 2.84, 3.49, 3.49, 3.49, 3.79, 4.07, 4.07, 4.07, 3.79, 4.07, 4.37, 5.09, 5.7, 6.16, 7.42, 7.21, 7.12, 6.21, 5.6, 4.6, 3.16, 3.93, 3.79, 4.43, 4.58, 4.42, 5.1, 5.21, 5.52, 4.8, 4.01, 4.93, 4.21, 0.76, 0.0, -0.0, 0.0, -1.79, -1.26, -0.0, -0.0, -0.0, -0.0, -1.9, -1.4, -1.4, -1.4, -11.88, -11.88, -11.62, -11.62, -11.99, -11.72, -11.72, -11.72, -11.8, -11.8, -11.8, -11.8, -11.8, -12.16, -11.87, -11.87, -11.87, -11.52, -11.28, -10.94, -10.36, -10.06, -9.77, -9.77, -10.09, -10.12, -10.12, -9.82, -10.12, -9.5, -8.58, -8.24, -7.33, -6.97, -6.71, -6.33, -6.33, -5.92, -5.26, -4.6, -3.45, -2.83, -2.33, -1.14, -0.58, 0.0, 0.56, 1.12, 1.8, 1.67, 2.36, 2.84, 2.84, 3.22, 3.22, 3.49, 3.79, 3.79, 4.11, 4.11, 3.79, 4.07, 4.8, 5.24, 5.78, 7.37, 7.42, 7.63, 7.2, 6.6, 6.0, 4.29, 3.72, 3.93, 4.54, 4.74, 5.37, 4.68, 4.5, 4.2, 4.25, 3.36, 3.39, 3.32, 0.0, 0.79, -0.0, 0.0, 0.0, 0.0, -0.0, -0.0, -0.0, -1.9, -2.21, -1.4, -1.4, -1.4, -11.88, -11.5, -11.62, -11.62, -11.62, -11.35, -11.72, -11.72, -11.44, -11.8, -11.8, -11.8, -11.8, -11.8, -11.8, -11.52, -11.28, -10.94, -10.94, -10.36, -10.65, -9.77, -10.09, -10.09, -10.4, -10.4, -10.12, -10.12, -9.5, -8.87, -8.24, -7.61, -7.33, -6.97, -6.97, -6.58, -6.33, -5.92, -5.26, -4.6, -3.45, -2.83, -2.19, -1.69, -0.54, 0.0, 0.0, 0.61, 1.12, 1.8, 2.16, 2.82, 3.08, 2.84, 3.22, 3.49, 3.79, 3.49, 3.78, 3.78, 3.78, 3.49, 4.0, 4.6, 5.24, 5.24, 6.94, 7.21, 7.35, 7.2, 6.8, 5.82, 4.98, 4.98, 4.6, 4.89, 4.58, 4.42, 3.6, 3.45, 3.49, 3.21, 2.39, 0.83, -0.0, 0.79, 1.2, 1.34, 0.0, 0.0, -0.0, -1.2, -1.4, -2.21, -1.4, -1.4, -1.4, -1.4, -11.34, -11.34, -11.07, -11.07, -11.44, -11.16, -11.35, -11.72, -11.72, -11.44, -11.23, -11.23, -11.23, -11.23, -11.23, -10.94, -10.94, -10.69, -10.36, -10.36, -10.36, -10.36, -10.36, -10.4, -10.4, -10.4, -10.12, -9.5, -9.19, -8.87, -7.95, -7.61, -7.33, -6.97, -6.97, -6.31, -6.33, -5.69, -5.04, -4.6, -3.45, -2.97, -2.3, -1.78, -1.14, 0.0, 0.0, 0.56, 0.57, 1.12, 2.32, 3.04, 2.82, 3.08, 3.49, 3.49, 3.49, 3.49, 3.49, 3.49, 3.49, 3.49, 3.79, 4.27, 4.77, 4.89, 6.65, 6.94, 6.8, 6.8, 6.8, 6.6, 6.57, 5.6, 4.6, 4.54, 4.29, 3.77, 2.67, 2.67, 2.54, 2.57, 1.76, 0.0, -0.0, 1.66, 2.21, 2.0, 1.79, 0.0, -0.0, -1.2, -2.21, -2.53, -2.53, -2.21, -2.21, -2.21, -11.34, -11.34, -11.34, -11.07, -11.07, -11.16, -11.16, -11.16, -11.16, -10.88, -10.88, -10.88, -10.88, -10.88, -10.65, -10.69, -10.69, -10.69, -10.69, -10.69, -10.69, -10.69, -10.4, -10.4, -10.4, -9.8, -9.5, -9.48, -8.87, -8.24, -7.61, -7.61, -7.61, -6.96, -6.96, -6.31, -5.67, -5.69, -5.04, -4.12, -3.45, -2.97, -2.3, -1.78, -1.14, -0.58, 0.0, 0.0, 0.56, 1.12, 2.32, 2.8, 3.04, 2.82, 3.49, 3.22, 3.22, 3.22, 3.12, 3.22, 3.22, 3.22, 3.49, 4.0, 4.11, 4.34, 3.98, 4.3, 6.21, 6.18, 6.21, 6.21, 6.57, 5.58, 4.89, 4.54, 4.43, 3.97, 3.55, 2.82, 1.73, 1.75, 0.8, 0.0, -0.0, 1.55, 2.84, 2.6, 2.4, -0.0, -0.0, -1.2, -1.4, -2.53, -2.53, -2.21, -2.21, -2.21, -10.96, -10.96, -10.96, -11.07, -11.07, -10.8, -10.8, -10.8, -10.59, -10.59, -10.3, -10.3, -10.65, -10.65, -10.65, -10.69, -10.69, -10.69, -10.69, -10.94, -10.99, -10.72, -10.4, -10.69, -10.09, -9.48, -9.17, -8.87, -8.24, -8.24, -7.61, -7.33, -7.33, -6.96, -6.96, -6.31, -5.92, -5.26, -4.6, -4.12, -3.45, -2.97, -2.3, -1.78, -1.14, -0.58, 0.0, 0.0, 0.56, 1.76, 2.14, 2.32, 2.8, 2.82, 3.08, 2.84, 2.84, 2.84, 2.84, 3.12, 3.49, 3.22, 3.49, 3.48, 4.0, 4.11, 3.87, 4.3, 6.21, 5.49, 5.95, 5.58, 5.6, 5.21, 4.89, 4.11, 3.63, 3.91, 3.72, 3.72, 2.64, 1.73, 0.85, 0.0, -2.21, 1.84, 2.95, 2.48, 1.98, -0.0, -0.99, -0.99, -1.4, -2.53, -2.53, -2.21, -2.21, -2.21, -10.96, -10.96, -10.96, -10.7, -10.87, -10.87, -10.59, -10.59, -10.59, -10.59, -10.59, -10.3, -10.3, -10.65, -10.36, -10.69, -11.28, -11.28, -10.99, -10.99, -10.99, -10.99, -10.4, -10.09, -9.48, -9.17, -8.56, -8.24, -8.24, -8.24, -7.6, -7.6, -7.6, -6.96, -6.7, -6.31, -5.92, -5.26, -4.6, -4.6, -3.94, -3.49, -2.83, -2.19, -1.69, -1.16, -0.55, 0.0, 0.56, 1.76, 2.29, 2.32, 2.32, 2.82, 2.82, 2.84, 2.4, 2.4, 2.2, 2.86, 3.12, 3.49, 3.49, 3.49, 3.78, 3.88, 4.11, 4.11, 4.4, 5.49, 5.49, 5.58, 5.6, 4.89, 4.89, 3.79, 2.95, 2.99, 3.22, 2.8, 2.8, 0.94, 0.81, 0.0, -3.13, 0.88, 2.53, 1.49, 0.79, -0.0, -0.87, -1.98, -1.74, -2.21, -2.8, -2.8, -2.8, -2.8, -10.79, -10.79, -10.79, -10.51, -10.51, -10.51, -10.23, -10.23, -10.01, -10.01, -10.35, -10.3, -10.65, -10.36, -10.69, -11.28, -10.99, -11.33, -11.33, -10.99, -10.99, -10.4, -10.69, -9.48, -9.17, -8.85, -8.53, -7.95, -8.24, -7.96, -7.96, -7.6, -7.6, -6.96, -6.31, -6.33, -5.92, -5.26, -4.6, -4.6, -3.94, -3.49, -2.83, -2.19, -1.69, -1.16, -0.55, 0.0, 0.56, 1.76, 1.76, 1.8, 2.16, 2.36, 2.36, 2.36, 2.18, 2.4, 2.2, 2.44, 2.86, 2.86, 3.49, 3.2, 3.48, 3.43, 3.88, 4.11, 4.27, 5.58, 6.21, 5.58, 5.58, 5.21, 4.89, 4.11, 2.95, 3.22, 2.76, 2.99, 1.98, 0.89, 0.0, -0.85, -2.23, -0.0, 0.81, -0.0, -0.0, -0.0, -0.87, -1.98, -1.74, -2.53, -2.8, -2.4, -2.4, -2.4, -10.41, -10.41, -10.79, -10.51, -10.51, -10.51, -10.3, -10.01, -10.01, -10.01, -10.3, -10.65, -10.36, -10.94, -11.28, -10.99, -11.33, -11.33, -11.33, -10.99, -10.72, -10.69, -10.09, -9.17, -8.85, -8.85, -8.24, -7.95, -8.24, -7.96, -8.24, -7.6, -7.6, -6.96, -6.31, -5.92, -5.92, -5.26, -4.6, -4.6, -3.94, -3.49, -2.83, -2.19, -1.69, -1.07, 0.0, 0.0, 0.56, 1.2, 1.76, 1.8, 1.84, 1.84, 1.84, 1.84, 1.7, 2.4, 2.2, 2.22, 2.22, 2.86, 2.86, 3.15, 3.16, 3.43, 3.72, 3.72, 4.11, 5.6, 6.0, 5.58, 5.21, 5.6, 4.89, 4.54, 3.79, 3.48, 2.95, 2.16, 1.98, 0.0, 0.0, -0.82, -1.73, -2.53, -0.96, -0.0, -0.0, -0.88, -0.87, -0.99, -2.21, -2.8, -2.8, -2.68, -2.68, -2.68, -10.41, -10.41, -10.41, -10.41, -10.15, -9.94, -9.94, -10.01, -10.01, -10.59, -10.65, -10.65, -10.94, -11.28, -10.99, -11.33, -11.33, -11.33, -10.99, -11.28, -10.69, -10.36, -9.77, -9.17, -8.85, -8.85, -7.95, -7.95, -8.24, -7.96, -7.96, -7.6, -6.96, -6.96, -6.31, -5.67, -5.67, -5.26, -4.6, -4.6, -3.94, -3.49, -2.83, -2.19, -1.69, -1.07, 0.0, 0.0, 0.56, 1.1, 1.2, 1.14, 1.84, 1.84, 1.84, 1.7, 1.7, 1.88, 1.73, 1.76, 2.22, 2.48, 2.48, 2.86, 3.16, 3.09, 3.35, 3.35, 3.6, 3.6, 3.72, 4.89, 4.89, 4.98, 4.11, 4.11, 3.79, 3.22, 2.2, 1.99, 0.96, 0.0, 0.0, -0.85, -1.69, -2.95, -2.95, -1.55, -1.55, -1.83, -1.66, -1.98, -1.9, -2.68, -2.68, -2.68, -2.68, -2.68, -10.41, -10.41, -10.41, -10.41, -10.15, -9.94, -10.3, -10.23, -10.59, -10.65, -10.88, -10.94, -11.28, -11.28, -11.33, -11.33, -11.33, -10.99, -11.28, -10.69, -10.36, -10.09, -9.77, -9.46, -8.85, -8.56, -8.24, -8.24, -8.24, -7.96, -7.6, -7.6, -6.96, -6.96, -6.31, -6.31, -5.67, -5.26, -5.26, -4.6, -3.94, -3.49, -2.83, -2.19, -1.69, -0.58, 0.0, 0.0, 0.56, 0.56, 0.56, 0.58, 1.16, 1.16, 1.16, 1.16, 1.16, 1.19, 1.73, 1.76, 1.76, 1.8, 2.23, 2.51, 2.84, 3.14, 2.79, 2.79, 3.07, 3.07, 2.79, 4.29, 4.6, 4.43, 3.22, 3.22, 3.22, 2.0, 1.08, 0.96, 0.96, 0.0, 0.0, 0.0, -0.83, -1.68, -3.16, -3.16, -2.53, -2.4, -2.53, -2.68, -2.6, -2.68, -2.68, -2.97, -2.97, -2.97, -10.04, -10.04, -10.41, -10.41, -10.15, -10.51, -10.23, -10.59, -10.65, -10.88, -11.23, -10.94, -11.28, -11.28, -10.99, -10.99, -10.99, -10.99, -10.69, -10.69, -10.36, -9.77, -9.77, -9.46, -8.56, -8.56, -8.24, -8.24, -8.24, -7.96, -7.6, -7.33, -6.96, -6.96, -6.31, -6.31, -5.67, -5.26, -5.26, -4.6, -3.94, -3.49, -2.83, -2.33, -1.14, -0.58, 0.0, 0.0, 0.0, 0.0, 0.0, 0.58, 0.53, 0.59, 0.59, 0.59, 0.59, 1.07, 1.19, 1.23, 1.11, 1.27, 1.8, 2.23, 2.23, 2.53, 2.53, 2.21, 2.5, 2.5, 2.5, 2.21, 2.23, 2.8, 2.4, 2.2, 2.2, 1.08, 1.08, 0.0, 0.0, 0.0, 0.0, 0.0, 0.0, 0.0, -0.82, -1.98, -2.53, -3.13, -2.98, -3.35, -3.47, -3.58, -3.47, -4.0, -4.0, -4.0, -10.04, -10.04, -10.41, -10.41, -10.15, -10.51, -10.23, -10.59, -10.65, -10.88, -11.23, -10.94, -11.28, -11.28, -10.99, -10.99, -10.99, -10.99, -10.69, -10.69, -10.36, -9.77, -9.77, -9.46, -8.56, -8.56, -8.24, -8.24, -8.24, -7.96, -7.6, -7.33, -6.96, -6.96, -6.31, -6.31, -5.67, -5.26, -5.26, -4.6, -3.94, -3.49, -2.83, -2.33, -1.14, -0.58, 0.0, 0.0, 0.0, 0.0, 0.0, 0.58, 0.53, 0.59, 0.59, 0.59, 0.59, 1.07, 1.19, 1.23, 1.11, 1.27, 1.8, 2.23, 2.23, 2.53, 2.53, 2.21, 2.5, 2.5, 2.5, 2.21, 2.23, 2.8, 2.4, 2.2, 2.0, 1.08, 1.08, 0.0, 0.0, 0.0, 0.0, 0.0, 0.0, 0.83, 0.83, 0.0, 0.0, 0.0, 0.0, -0.96, -2.48, -3.48, -3.22, -3.63, -3.63, -3.63]}]